| time (UTC) | temp F | wind direction | speed MPH | gust MPH | rain 1hr in | rain 24hr in | rain mn in | humidity % | barometer mb |
| 20260504005420 | 92 | 235 | 8.0 | 18.0 | 0.00 | 0.00 | 0.00 | 15 | 1005.8 |
| 20260504005332 | 92 | 255 | 7.0 | 18.0 | 0.00 | 0.00 | 0.00 | 15 | 1005.8 |
| 20260504005235 | 93 | 238 | 8.0 | 18.0 | 0.00 | 0.00 | 0.00 | 15 | 1005.8 |
| 20260504005116 | 93 | 243 | 8.0 | 18.0 | 0.00 | 0.00 | 0.00 | 15 | 1005.9 |
| 20260504005023 | 93 | 221 | 7.0 | 18.0 | 0.00 | 0.00 | 0.00 | 15 | 1005.8 |
| 20260504004925 | 93 | 226 | 5.0 | 16.0 | 0.00 | 0.00 | 0.00 | 15 | 1005.9 |
| 20260504004827 | 93 | 203 | 4.0 | 15.0 | 0.00 | 0.00 | 0.00 | 15 | 1005.9 |
| 20260504004755 | 93 | 248 | 5.0 | 15.0 | 0.00 | 0.00 | 0.00 | 15 | 1005.9 |
| 20260504004620 | 93 | 248 | 5.0 | 15.0 | 0.00 | 0.00 | 0.00 | 15 | 1005.9 |
| 20260504004531 | 93 | 200 | 6.0 | 15.0 | 0.00 | 0.00 | 0.00 | 15 | 1005.9 |
| 20260504004431 | 93 | 207 | 7.0 | 15.0 | 0.00 | 0.00 | 0.00 | 15 | 1005.9 |
| 20260504004318 | 93 | 240 | 6.0 | 17.0 | 0.00 | 0.00 | 0.00 | 15 | 1006.0 |
| 20260504004220 | 93 | 231 | 7.0 | 17.0 | 0.00 | 0.00 | 0.00 | 15 | 1006.0 |
| 20260504004150 | 93 | 251 | 9.0 | 17.0 | 0.00 | 0.00 | 0.00 | 15 | 1006.0 |
| 20260504003920 | 93 | 214 | 8.0 | 17.0 | 0.00 | 0.00 | 0.00 | 15 | 1006.0 |
| 20260504003821 | 93 | 212 | 8.0 | 17.0 | 0.00 | 0.00 | 0.00 | 15 | 1006.1 |
| 20260504003731 | 93 | 230 | 8.0 | 17.0 | 0.00 | 0.00 | 0.00 | 15 | 1006.2 |
| 20260504003633 | 93 | 240 | 11.0 | 17.0 | 0.00 | 0.00 | 0.00 | 14 | 1006.2 |
| 20260504003534 | 93 | 287 | 9.0 | 17.0 | 0.00 | 0.00 | 0.00 | 14 | 1006.2 |
| 20260504003417 | 93 | 209 | 3.0 | 16.0 | 0.00 | 0.00 | 0.00 | 14 | 1006.1 |
| 20260504003329 | 93 | 227 | 2.0 | 16.0 | 0.00 | 0.00 | 0.00 | 14 | 1006.1 |
| 20260504003259 | 93 | 211 | 5.0 | 16.0 | 0.00 | 0.00 | 0.00 | 14 | 1006.0 |
| 20260504003117 | 93 | 222 | 7.0 | 16.0 | 0.00 | 0.00 | 0.00 | 14 | 1006.0 |
| 20260504003018 | 94 | 199 | 7.0 | 16.0 | 0.00 | 0.00 | 0.00 | 14 | 1005.9 |
| 20260504002948 | 94 | 216 | 7.0 | 16.0 | 0.00 | 0.00 | 0.00 | 14 | 1005.9 |
| 20260504002835 | 94 | 223 | 4.0 | 15.0 | 0.00 | 0.00 | 0.00 | 14 | 1006.0 |
| 20260504002717 | 94 | 206 | 4.0 | 15.0 | 0.00 | 0.00 | 0.00 | 14 | 1006.0 |
| 20260504002623 | 94 | 219 | 8.0 | 15.0 | 0.00 | 0.00 | 0.00 | 14 | 1005.9 |
| 20260504002552 | 94 | 235 | 8.0 | 15.0 | 0.00 | 0.00 | 0.00 | 14 | 1005.9 |
| 20260504002432 | 94 | 218 | 6.0 | 15.0 | 0.00 | 0.00 | 0.00 | 14 | 1006.0 |
| 20260504002333 | 94 | 207 | 6.0 | 15.0 | 0.00 | 0.00 | 0.00 | 14 | 1005.9 |
| 20260504002221 | 94 | 220 | 5.0 | 15.0 | 0.00 | 0.00 | 0.00 | 14 | 1005.8 |
| 20260504002123 | 94 | 205 | 6.0 | 15.0 | 0.00 | 0.00 | 0.00 | 14 | 1005.8 |
| 20260504002025 | 94 | 160 | 8.0 | 16.0 | 0.00 | 0.00 | 0.00 | 14 | 1005.8 |
| 20260504001919 | 94 | 234 | 9.0 | 16.0 | 0.00 | 0.00 | 0.00 | 14 | 1005.8 |
| 20260504001820 | 94 | 235 | 8.0 | 16.0 | 0.00 | 0.00 | 0.00 | 14 | 1005.8 |
| 20260504001723 | 94 | 224 | 8.0 | 16.0 | 0.00 | 0.00 | 0.00 | 14 | 1005.9 |
| 20260504001632 | 94 | 201 | 9.0 | 16.0 | 0.00 | 0.00 | 0.00 | 14 | 1005.9 |
| 20260504001534 | 94 | 245 | 7.0 | 16.0 | 0.00 | 0.00 | 0.00 | 14 | 1006.0 |
| 20260504001417 | 94 | 238 | 7.0 | 16.0 | 0.00 | 0.00 | 0.00 | 14 | 1005.9 |
| 20260504001322 | 94 | 217 | 8.0 | 16.0 | 0.00 | 0.00 | 0.00 | 14 | 1005.7 |
| 20260504001231 | 94 | 234 | 7.0 | 18.0 | 0.00 | 0.00 | 0.00 | 14 | 1005.8 |
| 20260504001133 | 94 | 213 | 8.0 | 18.0 | 0.00 | 0.00 | 0.00 | 14 | 1005.8 |
| 20260504001016 | 94 | 223 | 7.0 | 18.0 | 0.00 | 0.00 | 0.00 | 14 | 1005.7 |
| 20260504000917 | 94 | 244 | 7.0 | 18.0 | 0.00 | 0.00 | 0.00 | 13 | 1005.7 |
| 20260504000846 | 94 | 255 | 9.0 | 18.0 | 0.00 | 0.00 | 0.00 | 13 | 1005.8 |
| 20260504000732 | 94 | 233 | 9.0 | 18.0 | 0.00 | 0.00 | 0.00 | 14 | 1005.8 |
| 20260504000640 | 94 | 211 | 9.0 | 18.0 | 0.00 | 0.00 | 0.00 | 14 | 1005.8 |
| 20260504000522 | 95 | 200 | 10.0 | 18.0 | 0.00 | 0.00 | 0.00 | 13 | 1005.8 |
| 20260504000424 | 95 | 296 | 10.0 | 18.0 | 0.00 | 0.00 | 0.00 | 13 | 1005.8 |
| 20260504000334 | 95 | 236 | 8.0 | 18.0 | 0.00 | 0.00 | 0.00 | 13 | 1005.9 |
| 20260504000235 | 95 | 205 | 5.0 | 18.0 | 0.00 | 0.00 | 0.00 | 14 | 1005.8 |
| 20260504000120 | 95 | 242 | 5.0 | 18.0 | 0.00 | 0.00 | 0.00 | 14 | 1005.8 |
| 20260504000033 | 95 | 249 | 7.0 | 18.0 | 0.00 | 0.00 | 0.00 | 13 | 1005.9 |
| 20260503235932 | 95 | 197 | 6.0 | 18.0 | 0.00 | 0.00 | 0.00 | 13 | 1005.9 |
| 20260503235901 | 95 | 269 | 6.0 | 18.0 | 0.00 | 0.00 | 0.00 | 14 | 1005.9 |
| 20260503235740 | 95 | 245 | 8.0 | 18.0 | 0.00 | 0.00 | 0.00 | 13 | 1005.9 |
| 20260503235622 | 95 | 240 | 9.0 | 18.0 | 0.00 | 0.00 | 0.00 | 13 | 1006.0 |
| 20260503235528 | 95 | 224 | 8.0 | 18.0 | 0.00 | 0.00 | 0.00 | 13 | 1005.8 |
| 20260503235437 | 95 | 217 | 7.0 | 14.0 | 0.00 | 0.00 | 0.00 | 13 | 1005.9 |
| 20260503235319 | 95 | 238 | 7.0 | 14.0 | 0.00 | 0.00 | 0.00 | 13 | 1005.9 |
| 20260503235221 | 95 | 266 | 6.0 | 14.0 | 0.00 | 0.00 | 0.00 | 13 | 1005.8 |
| 20260503235021 | 95 | 220 | 7.0 | 16.0 | 0.00 | 0.00 | 0.00 | 13 | 1005.8 |
| 20260503234928 | 95 | 250 | 9.0 | 16.0 | 0.00 | 0.00 | 0.00 | 13 | 1005.8 |
| 20260503234835 | 95 | 245 | 9.0 | 16.0 | 0.00 | 0.00 | 0.00 | 13 | 1005.8 |
| 20260503234757 | 95 | 256 | 8.0 | 16.0 | 0.00 | 0.00 | 0.00 | 13 | 1005.9 |
| 20260503234618 | 95 | 244 | 7.0 | 16.0 | 0.00 | 0.00 | 0.00 | 13 | 1005.8 |
| 20260503234526 | 95 | 235 | 7.0 | 16.0 | 0.00 | 0.00 | 0.00 | 13 | 1005.8 |
| 20260503234428 | 95 | 209 | 7.0 | 16.0 | 0.00 | 0.00 | 0.00 | 13 | 1005.7 |
| 20260503234331 | 95 | 223 | 8.0 | 16.0 | 0.00 | 0.00 | 0.00 | 13 | 1005.8 |
| 20260503234243 | 96 | 213 | 8.0 | 16.0 | 0.00 | 0.00 | 0.00 | 13 | 1005.9 |
| 20260503234124 | 96 | 249 | 8.0 | 16.0 | 0.00 | 0.00 | 0.00 | 13 | 1005.9 |
| 20260503234054 | 96 | 250 | 7.0 | 16.0 | 0.00 | 0.00 | 0.00 | 13 | 1005.9 |
| 20260503233934 | 96 | 246 | 7.0 | 16.0 | 0.00 | 0.00 | 0.00 | 13 | 1005.8 |
| 20260503233816 | 95 | 229 | 8.0 | 16.0 | 0.00 | 0.00 | 0.00 | 13 | 1005.8 |
| 20260503233724 | 96 | 276 | 9.0 | 16.0 | 0.00 | 0.00 | 0.00 | 13 | 1005.7 |
| 20260503233626 | 96 | 242 | 9.0 | 19.0 | 0.00 | 0.00 | 0.00 | 13 | 1005.7 |
| 20260503233532 | 96 | 259 | 7.0 | 19.0 | 0.00 | 0.00 | 0.00 | 13 | 1005.7 |
| 20260503233441 | 96 | 263 | 5.0 | 19.0 | 0.00 | 0.00 | 0.00 | 13 | 1005.7 |
| 20260503233344 | 96 | 219 | 6.0 | 19.0 | 0.00 | 0.00 | 0.00 | 13 | 1005.7 |
| 20260503233226 | 96 | 236 | 7.0 | 19.0 | 0.00 | 0.00 | 0.00 | 13 | 1005.8 |
| 20260503233154 | 96 | 221 | 7.0 | 19.0 | 0.00 | 0.00 | 0.00 | 13 | 1005.8 |
| 20260503233016 | 96 | 232 | 5.0 | 19.0 | 0.00 | 0.00 | 0.00 | 14 | 1005.7 |
| 20260503232922 | 96 | 237 | 8.0 | 19.0 | 0.00 | 0.00 | 0.00 | 13 | 1005.7 |
| 20260503232832 | 96 | 216 | 9.0 | 19.0 | 0.00 | 0.00 | 0.00 | 13 | 1005.8 |
| 20260503232740 | 96 | 236 | 9.0 | 19.0 | 0.00 | 0.00 | 0.00 | 13 | 1005.7 |
| 20260503232640 | 96 | 235 | 8.0 | 14.0 | 0.00 | 0.00 | 0.00 | 13 | 1005.7 |
| 20260503232523 | 96 | 257 | 6.0 | 14.0 | 0.00 | 0.00 | 0.00 | 13 | 1005.7 |
| 20260503232424 | 96 | 240 | 8.0 | 14.0 | 0.00 | 0.00 | 0.00 | 13 | 1005.7 |
| 20260503232333 | 97 | 237 | 8.0 | 14.0 | 0.00 | 0.00 | 0.00 | 13 | 1005.8 |
| 20260503232219 | 96 | 245 | 5.0 | 14.0 | 0.00 | 0.00 | 0.00 | 13 | 1005.8 |
| 20260503232119 | 96 | 316 | 3.0 | 12.0 | 0.00 | 0.00 | 0.00 | 13 | 1005.7 |
| 20260503232026 | 96 | 319 | 3.0 | 13.0 | 0.00 | 0.00 | 0.00 | 13 | 1005.8 |
| 20260503231928 | 96 | 319 | 5.0 | 15.0 | 0.00 | 0.00 | 0.00 | 14 | 1005.9 |
| 20260503231856 | 96 | 243 | 5.0 | 15.0 | 0.00 | 0.00 | 0.00 | 13 | 1005.9 |
| 20260503231717 | 96 | 238 | 5.0 | 15.0 | 0.00 | 0.00 | 0.00 | 13 | 1005.8 |
| 20260503231620 | 96 | 243 | 6.0 | 15.0 | 0.00 | 0.00 | 0.00 | 13 | 1005.9 |
| 20260503231532 | 97 | 258 | 6.0 | 15.0 | 0.00 | 0.00 | 0.00 | 13 | 1005.9 |
| 20260503231415 | 97 | 255 | 4.0 | 15.0 | 0.00 | 0.00 | 0.00 | 13 | 1006.0 |
| 20260503231344 | 97 | 263 | 5.0 | 15.0 | 0.00 | 0.00 | 0.00 | 13 | 1006.0 |
| 20260503231223 | 97 | 238 | 8.0 | 15.0 | 0.00 | 0.00 | 0.00 | 12 | 1005.9 |
| 20260503231131 | 97 | 244 | 10.0 | 15.0 | 0.00 | 0.00 | 0.00 | 12 | 1006.0 |
| 20260503231034 | 97 | 215 | 7.0 | 15.0 | 0.00 | 0.00 | 0.00 | 12 | 1005.9 |
| 20260503230919 | 97 | 258 | 5.0 | 14.0 | 0.00 | 0.00 | 0.00 | 12 | 1005.8 |
| 20260503230821 | 97 | 229 | 6.0 | 14.0 | 0.00 | 0.00 | 0.00 | 12 | 1005.9 |
| 20260503230730 | 98 | 223 | 5.0 | 14.0 | 0.00 | 0.00 | 0.00 | 12 | 1005.8 |
| 20260503230630 | 98 | 178 | 6.0 | 14.0 | 0.00 | 0.00 | 0.00 | 12 | 1005.8 |
| 20260503230532 | 98 | 219 | 6.0 | 14.0 | 0.00 | 0.00 | 0.00 | 12 | 1005.7 |
| 20260503230442 | 98 | 199 | 6.0 | 14.0 | 0.00 | 0.00 | 0.00 | 12 | 1005.7 |
| 20260503230326 | 98 | 188 | 7.0 | 14.0 | 0.00 | 0.00 | 0.00 | 12 | 1005.7 |
| 20260503230247 | 98 | 240 | 4.0 | 11.0 | 0.00 | 0.00 | 0.00 | 12 | 1005.8 |
| 20260503230134 | 97 | 266 | 3.0 | 9.0 | 0.00 | 0.00 | 0.00 | 12 | 1005.9 |
| 20260503230117 | 97 | 271 | 3.0 | 9.0 | 0.00 | 0.00 | 0.00 | 12 | 1005.9 |
| 20260503225924 | 97 | 272 | 3.0 | 10.0 | 0.00 | 0.00 | 0.00 | 12 | 1005.9 |
| 20260503225826 | 97 | 269 | 4.0 | 10.0 | 0.00 | 0.00 | 0.00 | 12 | 1005.9 |
| 20260503225734 | 97 | 266 | 3.0 | 11.0 | 0.00 | 0.00 | 0.00 | 12 | 1005.9 |
| 20260503225620 | 97 | 260 | 4.0 | 11.0 | 0.00 | 0.00 | 0.00 | 12 | 1005.9 |
| 20260503225541 | 98 | 259 | 4.0 | 11.0 | 0.00 | 0.00 | 0.00 | 12 | 1006.0 |
| 20260503225429 | 98 | 274 | 3.0 | 11.0 | 0.00 | 0.00 | 0.00 | 12 | 1005.9 |
| 20260503225332 | 97 | 279 | 3.0 | 11.0 | 0.00 | 0.00 | 0.00 | 12 | 1005.9 |
| 20260503225241 | 97 | 277 | 5.0 | 11.0 | 0.00 | 0.00 | 0.00 | 12 | 1005.9 |
| 20260503225120 | 98 | 277 | 6.0 | 11.0 | 0.00 | 0.00 | 0.00 | 12 | 1005.9 |
| 20260503225050 | 98 | 278 | 6.0 | 11.0 | 0.00 | 0.00 | 0.00 | 12 | 1005.9 |
| 20260503224931 | 98 | 279 | 5.0 | 11.0 | 0.00 | 0.00 | 0.00 | 12 | 1006.1 |
| 20260503224816 | 98 | 285 | 4.0 | 10.0 | 0.00 | 0.00 | 0.00 | 12 | 1006.0 |
| 20260503224745 | 98 | 285 | 5.0 | 10.0 | 0.00 | 0.00 | 0.00 | 12 | 1006.2 |
| 20260503224627 | 98 | 287 | 5.0 | 10.0 | 0.00 | 0.00 | 0.00 | 12 | 1006.1 |
| 20260503224529 | 98 | 291 | 3.0 | 7.0 | 0.00 | 0.00 | 0.00 | 12 | 1006.2 |
| 20260503224437 | 98 | 293 | 2.0 | 7.0 | 0.00 | 0.00 | 0.00 | 13 | 1006.2 |
| 20260503224319 | 98 | 293 | 1.0 | 7.0 | 0.00 | 0.00 | 0.00 | 13 | 1006.3 |
| 20260503224225 | 97 | 292 | 0.0 | 7.0 | 0.00 | 0.00 | 0.00 | 13 | 1006.3 |
| 20260503224126 | 97 | 292 | 1.0 | 7.0 | 0.00 | 0.00 | 0.00 | 13 | 1006.2 |
| 20260503224035 | 97 | 292 | 1.0 | 7.0 | 0.00 | 0.00 | 0.00 | 13 | 1006.2 |
| 20260503223918 | 97 | 292 | 2.0 | 8.0 | 0.00 | 0.00 | 0.00 | 13 | 1006.3 |
| 20260503223820 | 97 | 292 | 2.0 | 8.0 | 0.00 | 0.00 | 0.00 | 12 | 1006.3 |
| 20260503223729 | 97 | 294 | 2.0 | 11.0 | 0.00 | 0.00 | 0.00 | 13 | 1006.3 |
| 20260503223631 | 97 | 287 | 2.0 | 11.0 | 0.00 | 0.00 | 0.00 | 13 | 1006.4 |
| 20260503223540 | 97 | 287 | 2.0 | 11.0 | 0.00 | 0.00 | 0.00 | 13 | 1006.4 |
| 20260503223420 | 97 | 287 | 4.0 | 11.0 | 0.00 | 0.00 | 0.00 | 12 | 1006.5 |
| 20260503223322 | 97 | 224 | 4.0 | 11.0 | 0.00 | 0.00 | 0.00 | 13 | 1006.4 |
| 20260503223232 | 97 | 220 | 4.0 | 11.0 | 0.00 | 0.00 | 0.00 | 12 | 1006.5 |
| 20260503223134 | 97 | 284 | 4.0 | 11.0 | 0.00 | 0.00 | 0.00 | 12 | 1006.5 |
| 20260503223042 | 97 | 248 | 4.0 | 11.0 | 0.00 | 0.00 | 0.00 | 13 | 1006.5 |
| 20260503222927 | 97 | 263 | 4.0 | 11.0 | 0.00 | 0.00 | 0.00 | 13 | 1006.4 |
| 20260503222830 | 97 | 244 | 3.0 | 10.0 | 0.00 | 0.00 | 0.00 | 12 | 1006.4 |
| 20260503222731 | 97 | 260 | 2.0 | 10.0 | 0.00 | 0.00 | 0.00 | 13 | 1006.4 |
| 20260503222642 | 97 | 300 | 3.0 | 12.0 | 0.00 | 0.00 | 0.00 | 13 | 1006.4 |
| 20260503222543 | 97 | 318 | 5.0 | 15.0 | 0.00 | 0.00 | 0.00 | 13 | 1006.5 |
| 20260503222451 | 98 | 248 | 6.0 | 15.0 | 0.00 | 0.00 | 0.00 | 13 | 1006.4 |
| 20260503222358 | 98 | 264 | 4.0 | 15.0 | 0.00 | 0.00 | 0.00 | 13 | 1006.4 |
| 20260503222223 | 98 | 291 | 4.0 | 15.0 | 0.00 | 0.00 | 0.00 | 13 | 1006.5 |
| 20260503222125 | 98 | 283 | 4.0 | 15.0 | 0.00 | 0.00 | 0.00 | 13 | 1006.5 |
| 20260503222027 | 97 | 293 | 4.0 | 15.0 | 0.00 | 0.00 | 0.00 | 13 | 1006.5 |
| 20260503221934 | 97 | 250 | 6.0 | 15.0 | 0.00 | 0.00 | 0.00 | 13 | 1006.6 |
| 20260503221816 | 98 | 265 | 8.0 | 15.0 | 0.00 | 0.00 | 0.00 | 13 | 1006.6 |
| 20260503221718 | 98 | 277 | 5.0 | 15.0 | 0.00 | 0.00 | 0.00 | 13 | 1006.6 |
| 20260503221632 | 98 | 276 | 3.0 | 13.0 | 0.00 | 0.00 | 0.00 | 13 | 1006.6 |
| 20260503221533 | 97 | 180 | 1.0 | 13.0 | 0.00 | 0.00 | 0.00 | 13 | 1006.6 |
| 20260503221503 | 97 | 261 | 2.0 | 13.0 | 0.00 | 0.00 | 0.00 | 15 | 1006.6 |
| 20260503221323 | 97 | 229 | 6.0 | 13.0 | 0.00 | 0.00 | 0.00 | 13 | 1006.7 |
| 20260503221225 | 97 | 248 | 6.0 | 13.0 | 0.00 | 0.00 | 0.00 | 13 | 1006.7 |
| 20260503221127 | 97 | 233 | 5.0 | 11.0 | 0.00 | 0.00 | 0.00 | 13 | 1006.7 |
| 20260503221036 | 97 | 226 | 6.0 | 11.0 | 0.00 | 0.00 | 0.00 | 13 | 1006.7 |
| 20260503220922 | 97 | 261 | 5.0 | 13.0 | 0.00 | 0.00 | 0.00 | 13 | 1006.7 |
| 20260503220832 | 97 | 236 | 3.0 | 13.0 | 0.00 | 0.00 | 0.00 | 13 | 1006.7 |
| 20260503220733 | 97 | 249 | 2.0 | 13.0 | 0.00 | 0.00 | 0.00 | 13 | 1006.6 |
| 20260503220634 | 97 | 249 | 2.0 | 13.0 | 0.00 | 0.00 | 0.00 | 12 | 1006.7 |
| 20260503220516 | 97 | 238 | 2.0 | 13.0 | 0.00 | 0.00 | 0.00 | 13 | 1006.7 |
| 20260503220425 | 97 | 238 | 4.0 | 13.0 | 0.00 | 0.00 | 0.00 | 13 | 1006.9 |
| 20260503220332 | 97 | 236 | 7.0 | 13.0 | 0.00 | 0.00 | 0.00 | 13 | 1006.8 |
| 20260503220240 | 97 | 257 | 8.0 | 13.0 | 0.00 | 0.00 | 0.00 | 12 | 1006.8 |
| 20260503220141 | 97 | 240 | 6.0 | 13.0 | 0.00 | 0.00 | 0.00 | 13 | 1006.8 |
| 20260503215956 | 97 | 236 | 6.0 | 13.0 | 0.00 | 0.00 | 0.00 | 13 | 1006.8 |
| 20260503215837 | 97 | 227 | 4.0 | 10.0 | 0.00 | 0.00 | 0.00 | 13 | 1006.8 |
| 20260503215718 | 97 | 263 | 4.0 | 10.0 | 0.00 | 0.00 | 0.00 | 13 | 1006.8 |
| 20260503215628 | 97 | 263 | 2.0 | 10.0 | 0.00 | 0.00 | 0.00 | 13 | 1006.8 |
| 20260503215534 | 97 | 264 | 2.0 | 10.0 | 0.00 | 0.00 | 0.00 | 13 | 1006.8 |
| 20260503215415 | 97 | 264 | 3.0 | 10.0 | 0.00 | 0.00 | 0.00 | 13 | 1006.8 |
| 20260503215318 | 97 | 250 | 4.0 | 10.0 | 0.00 | 0.00 | 0.00 | 13 | 1006.9 |
| 20260503215227 | 98 | 243 | 5.0 | 10.0 | 0.00 | 0.00 | 0.00 | 13 | 1007.0 |
| 20260503215129 | 98 | 215 | 5.0 | 10.0 | 0.00 | 0.00 | 0.00 | 13 | 1006.9 |
| 20260503215031 | 98 | 219 | 4.0 | 9.0 | 0.00 | 0.00 | 0.00 | 13 | 1007.0 |
| 20260503214916 | 98 | 218 | 4.0 | 9.0 | 0.00 | 0.00 | 0.00 | 13 | 1006.9 |
| 20260503214825 | 98 | 174 | 4.0 | 9.0 | 0.00 | 0.00 | 0.00 | 13 | 1007.0 |
| 20260503214726 | 98 | 216 | 3.0 | 9.0 | 0.00 | 0.00 | 0.00 | 13 | 1006.9 |
| 20260503214636 | 97 | 146 | 2.0 | 8.0 | 0.00 | 0.00 | 0.00 | 13 | 1007.0 |
| 20260503214518 | 98 | 233 | 3.0 | 8.0 | 0.00 | 0.00 | 0.00 | 13 | 1007.0 |
| 20260503214424 | 98 | 258 | 3.0 | 8.0 | 0.00 | 0.00 | 0.00 | 13 | 1006.9 |
| 20260503214331 | 98 | 259 | 2.0 | 8.0 | 0.00 | 0.00 | 0.00 | 13 | 1006.9 |
| 20260503214232 | 98 | 265 | 0.0 | 8.0 | 0.00 | 0.00 | 0.00 | 12 | 1006.8 |
| 20260503214141 | 98 | 193 | 0.0 | 10.0 | 0.00 | 0.00 | 0.00 | 14 | 1006.9 |
| 20260503214021 | 98 | 193 | 1.0 | 11.0 | 0.00 | 0.00 | 0.00 | 13 | 1007.0 |
| 20260503213921 | 98 | 193 | 3.0 | 11.0 | 0.00 | 0.00 | 0.00 | 13 | 1006.9 |
| 20260503213830 | 98 | 179 | 3.0 | 11.0 | 0.00 | 0.00 | 0.00 | 14 | 1007.0 |
| 20260503213731 | 98 | 188 | 4.0 | 11.0 | 0.00 | 0.00 | 0.00 | 13 | 1007.0 |
| 20260503213617 | 98 | 264 | 3.0 | 11.0 | 0.00 | 0.00 | 0.00 | 13 | 1007.0 |
| 20260503213519 | 98 | 259 | 3.0 | 11.0 | 0.00 | 0.00 | 0.00 | 13 | 1007.0 |
| 20260503213429 | 98 | 256 | 3.0 | 11.0 | 0.00 | 0.00 | 0.00 | 13 | 1007.0 |
| 20260503213331 | 98 | 156 | 3.0 | 11.0 | 0.00 | 0.00 | 0.00 | 14 | 1007.0 |
| 20260503213242 | 98 | 104 | 2.0 | 11.0 | 0.00 | 0.00 | 0.00 | 14 | 1007.0 |
| 20260503213127 | 98 | 161 | 2.0 | 11.0 | 0.00 | 0.00 | 0.00 | 13 | 1007.1 |
| 20260503213048 | 98 | 146 | 3.0 | 11.0 | 0.00 | 0.00 | 0.00 | 13 | 1007.0 |
| 20260503212936 | 98 | 212 | 3.0 | 11.0 | 0.00 | 0.00 | 0.00 | 14 | 1007.0 |
| 20260503212818 | 97 | 20 | 2.0 | 11.0 | 0.00 | 0.00 | 0.00 | 16 | 1007.0 |
| 20260503212719 | 97 | 53 | 1.0 | 6.0 | 0.00 | 0.00 | 0.00 | 15 | 1007.0 |
| 20260503212628 | 97 | 217 | 0.0 | 4.0 | 0.00 | 0.00 | 0.00 | 17 | 1007.2 |
| 20260503212550 | 97 | 222 | 0.0 | 6.0 | 0.00 | 0.00 | 0.00 | 14 | 1007.3 |
| 20260503212437 | 97 | 222 | 0.0 | 6.0 | 0.00 | 0.00 | 0.00 | 14 | 1007.4 |
| 20260503212322 | 97 | 222 | 0.0 | 6.0 | 0.00 | 0.00 | 0.00 | 14 | 1007.4 |
| 20260503212252 | 97 | 221 | 0.0 | 6.0 | 0.00 | 0.00 | 0.00 | 15 | 1007.5 |
| 20260503212017 | 97 | 165 | 1.0 | 6.0 | 0.00 | 0.00 | 0.00 | 13 | 1007.5 |
| 20260503211919 | 97 | 168 | 2.0 | 8.0 | 0.00 | 0.00 | 0.00 | 15 | 1007.5 |
| 20260503211828 | 97 | 169 | 2.0 | 8.0 | 0.00 | 0.00 | 0.00 | 15 | 1007.5 |
| 20260503211735 | 96 | 168 | 3.0 | 8.0 | 0.00 | 0.00 | 0.00 | 15 | 1007.6 |
| 20260503211643 | 96 | 165 | 2.0 | 8.0 | 0.00 | 0.00 | 0.00 | 14 | 1007.6 |
| 20260503211524 | 96 | 160 | 1.0 | 8.0 | 0.00 | 0.00 | 0.00 | 14 | 1007.5 |
| 20260503211424 | 96 | 158 | 2.0 | 8.0 | 0.00 | 0.00 | 0.00 | 14 | 1007.5 |
| 20260503211354 | 96 | 158 | 3.0 | 8.0 | 0.00 | 0.00 | 0.00 | 15 | 1007.6 |
| 20260503211241 | 96 | 158 | 2.0 | 8.0 | 0.00 | 0.00 | 0.00 | 14 | 1007.6 |
| 20260503211123 | 96 | 127 | 2.0 | 10.0 | 0.00 | 0.00 | 0.00 | 14 | 1007.6 |
| 20260503211046 | 96 | 127 | 4.0 | 10.0 | 0.00 | 0.00 | 0.00 | 14 | 1007.7 |
| 20260503210937 | 96 | 161 | 3.0 | 10.0 | 0.00 | 0.00 | 0.00 | 15 | 1007.7 |
| 20260503210839 | 96 | 140 | 4.0 | 10.0 | 0.00 | 0.00 | 0.00 | 14 | 1007.7 |
| 20260503210725 | 96 | 138 | 3.0 | 10.0 | 0.00 | 0.00 | 0.00 | 15 | 1007.7 |
| 20260503210626 | 96 | 146 | 2.0 | 10.0 | 0.00 | 0.00 | 0.00 | 15 | 1007.8 |
| 20260503210535 | 96 | 151 | 3.0 | 10.0 | 0.00 | 0.00 | 0.00 | 15 | 1007.8 |
| 20260503210417 | 96 | 150 | 4.0 | 10.0 | 0.00 | 0.00 | 0.00 | 14 | 1007.9 |
| 20260503210323 | 96 | 141 | 4.0 | 9.0 | 0.00 | 0.00 | 0.00 | 15 | 1007.8 |
| 20260503210225 | 96 | 175 | 3.0 | 9.0 | 0.00 | 0.00 | 0.00 | 15 | 1007.9 |
| 20260503210134 | 96 | 143 | 4.0 | 9.0 | 0.00 | 0.00 | 0.00 | 15 | 1007.9 |
| 20260503210028 | 96 | 143 | 3.0 | 7.0 | 0.00 | 0.00 | 0.00 | 15 | 1007.9 |
| 20260503205919 | 96 | 147 | 3.0 | 7.0 | 0.00 | 0.00 | 0.00 | 15 | 1007.9 |
| 20260503205848 | 96 | 146 | 3.0 | 7.0 | 0.00 | 0.00 | 0.00 | 14 | 1007.8 |
| 20260503205728 | 96 | 153 | 2.0 | 6.0 | 0.00 | 0.00 | 0.00 | 15 | 1007.7 |
| 20260503205642 | 96 | 170 | 2.0 | 6.0 | 0.00 | 0.00 | 0.00 | 14 | 1007.7 |
| 20260503205524 | 96 | 178 | 1.0 | 14.0 | 0.00 | 0.00 | 0.00 | 15 | 1007.9 |
| 20260503205426 | 97 | 178 | 2.0 | 15.0 | 0.00 | 0.00 | 0.00 | 15 | 1007.9 |
| 20260503205324 | 97 | 179 | 2.0 | 15.0 | 0.00 | 0.00 | 0.00 | 14 | 1007.9 |
| 20260503205253 | 97 | 184 | 1.0 | 15.0 | 0.00 | 0.00 | 0.00 | 15 | 1008.0 |
| 20260503205201 | 97 | 183 | 2.0 | 15.0 | 0.00 | 0.00 | 0.00 | 15 | 1008.0 |
| 20260503205020 | 97 | 183 | 2.0 | 15.0 | 0.00 | 0.00 | 0.00 | 15 | 1008.1 |
| 20260503204925 | 96 | 160 | 2.0 | 15.0 | 0.00 | 0.00 | 0.00 | 15 | 1008.1 |
| 20260503204835 | 96 | 160 | 4.0 | 15.0 | 0.00 | 0.00 | 0.00 | 15 | 1008.2 |
| 20260503204717 | 96 | 212 | 6.0 | 15.0 | 0.00 | 0.00 | 0.00 | 14 | 1008.2 |
| 20260503204619 | 96 | 191 | 4.0 | 15.0 | 0.00 | 0.00 | 0.00 | 14 | 1008.2 |
| 20260503204521 | 96 | 174 | 2.0 | 11.0 | 0.00 | 0.00 | 0.00 | 15 | 1008.2 |
| 20260503204430 | 96 | 159 | 3.0 | 11.0 | 0.00 | 0.00 | 0.00 | 15 | 1008.2 |
| 20260503204317 | 96 | 147 | 4.0 | 11.0 | 0.00 | 0.00 | 0.00 | 15 | 1008.3 |
| 20260503204225 | 96 | 158 | 4.0 | 11.0 | 0.00 | 0.00 | 0.00 | 15 | 1008.3 |
| 20260503204126 | 96 | 154 | 4.0 | 11.0 | 0.00 | 0.00 | 0.00 | 15 | 1008.3 |
| 20260503204033 | 96 | 170 | 3.0 | 11.0 | 0.00 | 0.00 | 0.00 | 15 | 1008.4 |
| 20260503203934 | 96 | 179 | 4.0 | 11.0 | 0.00 | 0.00 | 0.00 | 14 | 1008.3 |
| 20260503203816 | 96 | 159 | 5.0 | 11.0 | 0.00 | 0.00 | 0.00 | 15 | 1008.3 |
| 20260503203745 | 95 | 158 | 4.0 | 10.0 | 0.00 | 0.00 | 0.00 | 15 | 1008.3 |
| 20260503203653 | 95 | 160 | 4.0 | 10.0 | 0.00 | 0.00 | 0.00 | 14 | 1008.3 |
| 20260503203517 | 96 | 163 | 4.0 | 10.0 | 0.00 | 0.00 | 0.00 | 14 | 1008.4 |
| 20260503203420 | 96 | 166 | 4.0 | 10.0 | 0.00 | 0.00 | 0.00 | 15 | 1008.3 |
| 20260503203321 | 95 | 84 | 4.0 | 10.0 | 0.00 | 0.00 | 0.00 | 15 | 1008.4 |
| 20260503203231 | 95 | 83 | 4.0 | 10.0 | 0.00 | 0.00 | 0.00 | 15 | 1008.3 |
| 20260503203132 | 95 | 82 | 2.0 | 9.0 | 0.00 | 0.00 | 0.00 | 15 | 1008.4 |
| 20260503203019 | 95 | 71 | 1.0 | 9.0 | 0.00 | 0.00 | 0.00 | 16 | 1008.2 |
| 20260503202949 | 95 | 69 | 2.0 | 13.0 | 0.00 | 0.00 | 0.00 | 15 | 1008.4 |
| 20260503202829 | 95 | 97 | 4.0 | 13.0 | 0.00 | 0.00 | 0.00 | 15 | 1008.5 |
| 20260503202738 | 96 | 134 | 4.0 | 13.0 | 0.00 | 0.00 | 0.00 | 14 | 1008.6 |
| 20260503202619 | 96 | 164 | 3.0 | 13.0 | 0.00 | 0.00 | 0.00 | 15 | 1008.6 |
| 20260503202522 | 96 | 162 | 3.0 | 14.0 | 0.00 | 0.00 | 0.00 | 15 | 1008.6 |
| 20260503202430 | 96 | 106 | 3.0 | 14.0 | 0.00 | 0.00 | 0.00 | 15 | 1008.6 |
| 20260503202316 | 96 | 139 | 3.0 | 14.0 | 0.00 | 0.00 | 0.00 | 15 | 1008.6 |
| 20260503202218 | 96 | 127 | 6.0 | 14.0 | 0.00 | 0.00 | 0.00 | 14 | 1008.7 |
| 20260503202126 | 96 | 139 | 6.0 | 14.0 | 0.00 | 0.00 | 0.00 | 14 | 1008.7 |
| 20260503202029 | 96 | 124 | 6.0 | 14.0 | 0.00 | 0.00 | 0.00 | 15 | 1008.7 |
| 20260503201936 | 96 | 109 | 6.0 | 14.0 | 0.00 | 0.00 | 0.00 | 15 | 1008.7 |
| 20260503201838 | 97 | 129 | 6.0 | 14.0 | 0.00 | 0.00 | 0.00 | 15 | 1008.6 |
| 20260503201727 | 97 | 137 | 5.0 | 14.0 | 0.00 | 0.00 | 0.00 | 15 | 1008.6 |
| 20260503201632 | 97 | 134 | 2.0 | 12.0 | 0.00 | 0.00 | 0.00 | 17 | 1008.6 |
| 20260503201534 | 97 | 144 | 4.0 | 12.0 | 0.00 | 0.00 | 0.00 | 15 | 1008.6 |
| 20260503201417 | 97 | 148 | 5.0 | 12.0 | 0.00 | 0.00 | 0.00 | 15 | 1008.7 |
| 20260503201346 | 97 | 103 | 2.0 | 10.0 | 0.00 | 0.00 | 0.00 | 17 | 1008.5 |
| 20260503201225 | 96 | 75 | 0.0 | 7.0 | 0.00 | 0.00 | 0.00 | 17 | 1008.6 |
| 20260503201134 | 96 | 75 | 0.0 | 7.0 | 0.00 | 0.00 | 0.00 | 18 | 1008.6 |
| 20260503201018 | 96 | 97 | 0.0 | 7.0 | 0.00 | 0.00 | 0.00 | 16 | 1008.7 |
| 20260503200940 | 95 | 89 | 0.0 | 11.0 | 0.00 | 0.00 | 0.00 | 17 | 1008.7 |
| 20260503200827 | 95 | 88 | 1.0 | 11.0 | 0.00 | 0.00 | 0.00 | 16 | 1008.7 |
| 20260503200737 | 95 | 76 | 2.0 | 11.0 | 0.00 | 0.00 | 0.00 | 15 | 1008.7 |
| 20260503200636 | 95 | 127 | 2.0 | 11.0 | 0.00 | 0.00 | 0.00 | 15 | 1008.8 |
| 20260503200545 | 95 | 131 | 2.0 | 11.0 | 0.00 | 0.00 | 0.00 | 16 | 1008.8 |
| 20260503200508 | 95 | 138 | 2.0 | 11.0 | 0.00 | 0.00 | 0.00 | 15 | 1008.8 |
| 20260503200355 | 95 | 150 | 2.0 | 11.0 | 0.00 | 0.00 | 0.00 | 16 | 1008.8 |
| 20260503200242 | 95 | 122 | 4.0 | 11.0 | 0.00 | 0.00 | 0.00 | 16 | 1008.8 |
| 20260503200122 | 95 | 122 | 5.0 | 11.0 | 0.00 | 0.00 | 0.00 | 15 | 1008.8 |
| 20260503200106 | 95 | 120 | 4.0 | 9.0 | 0.00 | 0.00 | 0.00 | 15 | 1008.8 |
| 20260503195916 | 95 | 167 | 3.0 | 9.0 | 0.00 | 0.00 | 0.00 | 17 | 1008.9 |
| 20260503195818 | 95 | 99 | 3.0 | 9.0 | 0.00 | 0.00 | 0.00 | 16 | 1008.9 |
| 20260503195726 | 95 | 162 | 2.0 | 9.0 | 0.00 | 0.00 | 0.00 | 16 | 1008.9 |
| 20260503195627 | 95 | 188 | 2.0 | 9.0 | 0.00 | 0.00 | 0.00 | 15 | 1009.0 |
| 20260503195530 | 95 | 149 | 2.0 | 9.0 | 0.00 | 0.00 | 0.00 | 16 | 1009.0 |
| 20260503195443 | 95 | 120 | 2.0 | 9.0 | 0.00 | 0.00 | 0.00 | 16 | 1009.1 |
| 20260503195344 | 95 | 120 | 3.0 | 9.0 | 0.00 | 0.00 | 0.00 | 16 | 1009.0 |
| 20260503195233 | 95 | 115 | 2.0 | 9.0 | 0.00 | 0.00 | 0.00 | 15 | 1009.1 |
| 20260503195135 | 95 | 115 | 3.0 | 9.0 | 0.00 | 0.00 | 0.00 | 16 | 1009.0 |
| 20260503195016 | 95 | 115 | 2.0 | 10.0 | 0.00 | 0.00 | 0.00 | 16 | 1009.0 |
| 20260503194918 | 95 | 115 | 1.0 | 10.0 | 0.00 | 0.00 | 0.00 | 18 | 1009.0 |
| 20260503194827 | 95 | 115 | 1.0 | 10.0 | 0.00 | 0.00 | 0.00 | 17 | 1009.0 |
| 20260503194734 | 95 | 115 | 1.0 | 10.0 | 0.00 | 0.00 | 0.00 | 18 | 1009.0 |
| 20260503194617 | 95 | 115 | 1.0 | 10.0 | 0.00 | 0.00 | 0.00 | 18 | 1009.0 |
| 20260503194527 | 95 | 108 | 2.0 | 10.0 | 0.00 | 0.00 | 0.00 | 19 | 1009.1 |
| 20260503194429 | 95 | 228 | 5.0 | 10.0 | 0.00 | 0.00 | 0.00 | 17 | 1009.1 |
| 20260503194331 | 95 | 151 | 5.0 | 10.0 | 0.00 | 0.00 | 0.00 | 17 | 1009.1 |
| 20260503194240 | 95 | 178 | 3.0 | 9.0 | 0.00 | 0.00 | 0.00 | 17 | 1009.2 |
| 20260503194145 | 95 | 136 | 2.0 | 9.0 | 0.00 | 0.00 | 0.00 | 17 | 1009.2 |
| 20260503194033 | 95 | 110 | 2.0 | 9.0 | 0.00 | 0.00 | 0.00 | 18 | 1009.2 |
| 20260503193934 | 95 | 110 | 3.0 | 9.0 | 0.00 | 0.00 | 0.00 | 17 | 1009.2 |
| 20260503193843 | 95 | 110 | 2.0 | 9.0 | 0.00 | 0.00 | 0.00 | 18 | 1009.2 |
| 20260503193725 | 95 | 112 | 2.0 | 9.0 | 0.00 | 0.00 | 0.00 | 17 | 1009.4 |
| 20260503193626 | 94 | 112 | 3.0 | 10.0 | 0.00 | 0.00 | 0.00 | 17 | 1009.2 |
| 20260503193528 | 94 | 123 | 4.0 | 10.0 | 0.00 | 0.00 | 0.00 | 18 | 1009.4 |
| 20260503193420 | 94 | 124 | 3.0 | 10.0 | 0.00 | 0.00 | 0.00 | 18 | 1009.4 |
| 20260503193320 | 94 | 132 | 1.0 | 10.0 | 0.00 | 0.00 | 0.00 | 18 | 1009.5 |
| 20260503193229 | 94 | 132 | 2.0 | 10.0 | 0.00 | 0.00 | 0.00 | 17 | 1009.4 |
| 20260503193131 | 94 | 133 | 5.0 | 10.0 | 0.00 | 0.00 | 0.00 | 17 | 1009.4 |
| 20260503193034 | 94 | 134 | 4.0 | 10.0 | 0.00 | 0.00 | 0.00 | 17 | 1009.5 |
| 20260503192915 | 94 | 128 | 3.0 | 10.0 | 0.00 | 0.00 | 0.00 | 17 | 1009.4 |
| 20260503192828 | 94 | 134 | 3.0 | 10.0 | 0.00 | 0.00 | 0.00 | 18 | 1009.4 |
| 20260503192728 | 94 | 119 | 2.0 | 11.0 | 0.00 | 0.00 | 0.00 | 18 | 1009.4 |
| 20260503192637 | 94 | 123 | 2.0 | 11.0 | 0.00 | 0.00 | 0.00 | 19 | 1009.5 |
| 20260503192539 | 94 | 109 | 2.0 | 13.0 | 0.00 | 0.00 | 0.00 | 19 | 1009.5 |
| 20260503192420 | 94 | 111 | 1.0 | 13.0 | 0.00 | 0.00 | 0.00 | 20 | 1009.5 |
| 20260503192327 | 94 | 85 | 1.0 | 13.0 | 0.00 | 0.00 | 0.00 | 20 | 1009.5 |
| 20260503192229 | 94 | 53 | 1.0 | 13.0 | 0.00 | 0.00 | 0.00 | 21 | 1009.5 |
| 20260503192121 | 94 | 90 | 3.0 | 13.0 | 0.00 | 0.00 | 0.00 | 19 | 1009.7 |
| 20260503192051 | 94 | 105 | 5.0 | 13.0 | 0.00 | 0.00 | 0.00 | 19 | 1009.8 |
| 20260503191932 | 94 | 80 | 6.0 | 13.0 | 0.00 | 0.00 | 0.00 | 19 | 1009.7 |
| 20260503191834 | 94 | 106 | 5.0 | 13.0 | 0.00 | 0.00 | 0.00 | 18 | 1009.6 |
| 20260503191715 | 94 | 126 | 2.0 | 13.0 | 0.00 | 0.00 | 0.00 | 19 | 1009.7 |
| 20260503191624 | 94 | 151 | 0.0 | 9.0 | 0.00 | 0.00 | 0.00 | 18 | 1009.7 |
| 20260503191528 | 94 | 146 | 1.0 | 9.0 | 0.00 | 0.00 | 0.00 | 19 | 1009.8 |
| 20260503191433 | 94 | 148 | 3.0 | 9.0 | 0.00 | 0.00 | 0.00 | 20 | 1009.8 |
| 20260503191226 | 93 | 150 | 2.0 | 9.0 | 0.00 | 0.00 | 0.00 | 20 | 1009.7 |
| 20260503191128 | 93 | 150 | 2.0 | 9.0 | 0.00 | 0.00 | 0.00 | 19 | 1009.8 |
| 20260503191030 | 93 | 150 | 2.0 | 9.0 | 0.00 | 0.00 | 0.00 | 21 | 1009.8 |
| 20260503190939 | 93 | 122 | 1.0 | 9.0 | 0.00 | 0.00 | 0.00 | 19 | 1009.8 |
| 20260503190824 | 92 | 122 | 2.0 | 8.0 | 0.00 | 0.00 | 0.00 | 19 | 1009.9 |
| 20260503190745 | 92 | 122 | 3.0 | 8.0 | 0.00 | 0.00 | 0.00 | 19 | 1009.8 |
| 20260503190634 | 92 | 122 | 2.0 | 8.0 | 0.00 | 0.00 | 0.00 | 19 | 1009.9 |
| 20260503190516 | 92 | 122 | 1.0 | 8.0 | 0.00 | 0.00 | 0.00 | 21 | 1009.9 |
| 20260503190417 | 92 | 122 | 1.0 | 8.0 | 0.00 | 0.00 | 0.00 | 23 | 1009.9 |
| 20260503190318 | 92 | 122 | 2.0 | 8.0 | 0.00 | 0.00 | 0.00 | 20 | 1010.0 |
| 20260503190232 | 92 | 122 | 2.0 | 8.0 | 0.00 | 0.00 | 0.00 | 21 | 1010.1 |
| 20260503190134 | 92 | 122 | 2.0 | 8.0 | 0.00 | 0.00 | 0.00 | 21 | 1010.1 |
| 20260503190032 | 92 | 122 | 3.0 | 8.0 | 0.00 | 0.00 | 0.00 | 20 | 1010.0 |
| 20260503185921 | 92 | 122 | 2.0 | 8.0 | 0.00 | 0.00 | 0.00 | 20 | 1010.1 |
| 20260503185828 | 92 | 123 | 2.0 | 8.0 | 0.00 | 0.00 | 0.00 | 22 | 1010.1 |
| 20260503185731 | 93 | 122 | 2.0 | 8.0 | 0.00 | 0.00 | 0.00 | 22 | 1010.1 |
| 20260503185618 | 92 | 120 | 2.0 | 13.0 | 0.00 | 0.00 | 0.00 | 22 | 1010.1 |
| 20260503185527 | 92 | 122 | 1.0 | 13.0 | 0.00 | 0.00 | 0.00 | 23 | 1010.1 |
| 20260503185430 | 92 | 122 | 1.0 | 13.0 | 0.00 | 0.00 | 0.00 | 23 | 1010.1 |
| 20260503185332 | 92 | 121 | 1.0 | 13.0 | 0.00 | 0.00 | 0.00 | 23 | 1010.1 |
| 20260503185240 | 92 | 121 | 2.0 | 13.0 | 0.00 | 0.00 | 0.00 | 22 | 1010.0 |
| 20260503185140 | 92 | 133 | 2.0 | 13.0 | 0.00 | 0.00 | 0.00 | 21 | 1010.1 |
| 20260503185048 | 92 | 133 | 3.0 | 13.0 | 0.00 | 0.00 | 0.00 | 22 | 1010.2 |
| 20260503184929 | 92 | 130 | 4.0 | 13.0 | 0.00 | 0.00 | 0.00 | 22 | 1010.2 |
| 20260503184819 | 92 | 134 | 4.0 | 13.0 | 0.00 | 0.00 | 0.00 | 22 | 1010.2 |
| 20260503184723 | 92 | 93 | 3.0 | 13.0 | 0.00 | 0.00 | 0.00 | 22 | 1010.2 |
| 20260503184624 | 92 | 122 | 4.0 | 10.0 | 0.00 | 0.00 | 0.00 | 22 | 1010.3 |
| 20260503184534 | 92 | 143 | 3.0 | 10.0 | 0.00 | 0.00 | 0.00 | 23 | 1010.3 |
| 20260503184416 | 92 | 127 | 1.0 | 10.0 | 0.00 | 0.00 | 0.00 | 23 | 1010.3 |
| 20260503184318 | 92 | 86 | 2.0 | 10.0 | 0.00 | 0.00 | 0.00 | 23 | 1010.2 |
| 20260503184229 | 92 | 84 | 3.0 | 10.0 | 0.00 | 0.00 | 0.00 | 25 | 1010.2 |
| 20260503184158 | 92 | 84 | 4.0 | 10.0 | 0.00 | 0.00 | 0.00 | 23 | 1010.2 |
| 20260503184019 | 92 | 122 | 3.0 | 8.0 | 0.00 | 0.00 | 0.00 | 24 | 1010.3 |
| 20260503183922 | 91 | 79 | 2.0 | 8.0 | 0.00 | 0.00 | 0.00 | 24 | 1010.2 |
| 20260503183824 | 91 | 88 | 1.0 | 8.0 | 0.00 | 0.00 | 0.00 | 24 | 1010.3 |
| 20260503183734 | 91 | 88 | 0.0 | 8.0 | 0.00 | 0.00 | 0.00 | 24 | 1010.3 |
| 20260503183620 | 91 | 85 | 1.0 | 8.0 | 0.00 | 0.00 | 0.00 | 25 | 1010.4 |
| 20260503183522 | 91 | 85 | 2.0 | 8.0 | 0.00 | 0.00 | 0.00 | 26 | 1010.4 |
| 20260503183424 | 91 | 77 | 2.0 | 8.0 | 0.00 | 0.00 | 0.00 | 24 | 1010.4 |
| 20260503183353 | 91 | 90 | 2.0 | 8.0 | 0.00 | 0.00 | 0.00 | 25 | 1010.4 |
| 20260503183233 | 91 | 100 | 2.0 | 8.0 | 0.00 | 0.00 | 0.00 | 24 | 1010.5 |
| 20260503183116 | 91 | 121 | 3.0 | 8.0 | 0.00 | 0.00 | 0.00 | 24 | 1010.5 |
| 20260503183024 | 91 | 129 | 3.0 | 8.0 | 0.00 | 0.00 | 0.00 | 24 | 1010.5 |
| 20260503182930 | 91 | 128 | 2.0 | 7.0 | 0.00 | 0.00 | 0.00 | 23 | 1010.5 |
| 20260503182831 | 92 | 141 | 2.0 | 7.0 | 0.00 | 0.00 | 0.00 | 25 | 1010.4 |
| 20260503182719 | 91 | 122 | 1.0 | 7.0 | 0.00 | 0.00 | 0.00 | 25 | 1010.4 |
| 20260503182639 | 91 | 86 | 1.0 | 7.0 | 0.00 | 0.00 | 0.00 | 26 | 1010.4 |
| 20260503182527 | 90 | 86 | 2.0 | 7.0 | 0.00 | 0.00 | 0.00 | 26 | 1010.5 |
| 20260503182430 | 90 | 139 | 3.0 | 7.0 | 0.00 | 0.00 | 0.00 | 25 | 1010.5 |
| 20260503182339 | 90 | 162 | 4.0 | 7.0 | 0.00 | 0.00 | 0.00 | 25 | 1010.7 |
| 20260503182223 | 90 | 165 | 3.0 | 7.0 | 0.00 | 0.00 | 0.00 | 25 | 1010.7 |
| 20260503182125 | 90 | 167 | 2.0 | 6.0 | 0.00 | 0.00 | 0.00 | 25 | 1010.7 |
| 20260503182035 | 90 | 120 | 1.0 | 6.0 | 0.00 | 0.00 | 0.00 | 25 | 1010.7 |
| 20260503181917 | 90 | 122 | 1.0 | 3.0 | 0.00 | 0.00 | 0.00 | 25 | 1010.7 |
| 20260503181819 | 90 | 123 | 0.0 | 3.0 | 0.00 | 0.00 | 0.00 | 27 | 1010.6 |
| 20260503181722 | 89 | 123 | 0.0 | 3.0 | 0.00 | 0.00 | 0.00 | 25 | 1010.7 |
| 20260503181634 | 89 | 123 | 0.0 | 3.0 | 0.00 | 0.00 | 0.00 | 27 | 1010.6 |
| 20260503181555 | 89 | 123 | 1.0 | 4.0 | 0.00 | 0.00 | 0.00 | 27 | 1010.7 |
| 20260503181444 | 89 | 123 | 1.0 | 8.0 | 0.00 | 0.00 | 0.00 | 26 | 1010.7 |
| 20260503181324 | 89 | 122 | 1.0 | 8.0 | 0.00 | 0.00 | 0.00 | 26 | 1010.7 |
| 20260503181235 | 89 | 122 | 1.0 | 8.0 | 0.00 | 0.00 | 0.00 | 25 | 1010.8 |
| 20260503181135 | 89 | 122 | 1.0 | 8.0 | 0.00 | 0.00 | 0.00 | 27 | 1010.8 |
| 20260503181020 | 89 | 123 | 0.0 | 8.0 | 0.00 | 0.00 | 0.00 | 26 | 1010.8 |
| 20260503180923 | 89 | 123 | 1.0 | 8.0 | 0.00 | 0.00 | 0.00 | 26 | 1010.8 |
| 20260503180850 | 89 | 123 | 1.0 | 8.0 | 0.00 | 0.00 | 0.00 | 26 | 1010.8 |
| 20260503180731 | 89 | 122 | 3.0 | 8.0 | 0.00 | 0.00 | 0.00 | 26 | 1010.8 |
| 20260503180640 | 88 | 125 | 3.0 | 8.0 | 0.00 | 0.00 | 0.00 | 26 | 1010.8 |
| 20260503180522 | 89 | 127 | 1.0 | 8.0 | 0.00 | 0.00 | 0.00 | 26 | 1010.9 |
| 20260503180445 | 89 | 126 | 2.0 | 8.0 | 0.00 | 0.00 | 0.00 | 27 | 1011.0 |
| 20260503180336 | 89 | 127 | 2.0 | 8.0 | 0.00 | 0.00 | 0.00 | 26 | 1011.0 |
| 20260503180217 | 88 | 112 | 1.0 | 8.0 | 0.00 | 0.00 | 0.00 | 27 | 1011.0 |
| 20260503180119 | 88 | 112 | 1.0 | 10.0 | 0.00 | 0.00 | 0.00 | 26 | 1011.0 |
| 20260503180100 | 88 | 111 | 2.0 | 10.0 | 0.00 | 0.00 | 0.00 | 26 | 1011.0 |
| 20260503175937 | 88 | 101 | 2.0 | 10.0 | 0.00 | 0.00 | 0.00 | 26 | 1011.0 |
| 20260503175819 | 87 | 112 | 1.0 | 10.0 | 0.00 | 0.00 | 0.00 | 27 | 1011.0 |
| 20260503175722 | 87 | 120 | 3.0 | 10.0 | 0.00 | 0.00 | 0.00 | 27 | 1011.1 |
| 20260503175629 | 87 | 120 | 3.0 | 10.0 | 0.00 | 0.00 | 0.00 | 26 | 1011.2 |
| 20260503175538 | 87 | 143 | 3.0 | 10.0 | 0.00 | 0.00 | 0.00 | 27 | 1011.1 |
| 20260503175447 | 88 | 148 | 4.0 | 10.0 | 0.00 | 0.00 | 0.00 | 27 | 1011.2 |
| 20260503175328 | 87 | 127 | 3.0 | 10.0 | 0.00 | 0.00 | 0.00 | 26 | 1011.2 |
| 20260503175229 | 88 | 125 | 2.0 | 10.0 | 0.00 | 0.00 | 0.00 | 26 | 1011.2 |
| 20260503175117 | 88 | 109 | 3.0 | 10.0 | 0.00 | 0.00 | 0.00 | 25 | 1011.1 |
| 20260503175018 | 88 | 111 | 5.0 | 10.0 | 0.00 | 0.00 | 0.00 | 25 | 1011.2 |
| 20260503174951 | 88 | 124 | 5.0 | 10.0 | 0.00 | 0.00 | 0.00 | 25 | 1011.1 |
| 20260503174852 | 88 | 129 | 2.0 | 9.0 | 0.00 | 0.00 | 0.00 | 26 | 1011.2 |
| 20260503174739 | 88 | 120 | 2.0 | 10.0 | 0.00 | 0.00 | 0.00 | 26 | 1011.2 |
| 20260503174641 | 88 | 107 | 3.0 | 10.0 | 0.00 | 0.00 | 0.00 | 26 | 1011.1 |
| 20260503174522 | 88 | 135 | 2.0 | 10.0 | 0.00 | 0.00 | 0.00 | 26 | 1011.1 |
| 20260503174431 | 88 | 148 | 3.0 | 10.0 | 0.00 | 0.00 | 0.00 | 26 | 1011.1 |
| 20260503174332 | 88 | 149 | 3.0 | 10.0 | 0.00 | 0.00 | 0.00 | 26 | 1011.0 |
| 20260503174225 | 88 | 150 | 2.0 | 10.0 | 0.00 | 0.00 | 0.00 | 26 | 1011.1 |
| 20260503174125 | 88 | 120 | 2.0 | 10.0 | 0.00 | 0.00 | 0.00 | 26 | 1011.0 |
| 20260503174028 | 88 | 98 | 3.0 | 10.0 | 0.00 | 0.00 | 0.00 | 26 | 1011.0 |
| 20260503173936 | 88 | 107 | 3.0 | 9.0 | 0.00 | 0.00 | 0.00 | 26 | 1011.1 |
| 20260503173837 | 88 | 120 | 2.0 | 8.0 | 0.00 | 0.00 | 0.00 | 26 | 1011.1 |
| 20260503173718 | 88 | 113 | 1.0 | 8.0 | 0.00 | 0.00 | 0.00 | 26 | 1011.1 |
| 20260503173626 | 87 | 114 | 2.0 | 10.0 | 0.00 | 0.00 | 0.00 | 26 | 1011.1 |
| 20260503173534 | 87 | 115 | 2.0 | 10.0 | 0.00 | 0.00 | 0.00 | 26 | 1011.2 |
| 20260503173419 | 87 | 112 | 2.0 | 10.0 | 0.00 | 0.00 | 0.00 | 25 | 1011.2 |
| 20260503173340 | 87 | 113 | 2.0 | 10.0 | 0.00 | 0.00 | 0.00 | 25 | 1011.3 |
| 20260503173249 | 87 | 115 | 3.0 | 11.0 | 0.00 | 0.00 | 0.00 | 26 | 1011.2 |
| 20260503173130 | 87 | 123 | 3.0 | 11.0 | 0.00 | 0.00 | 0.00 | 26 | 1011.2 |
| 20260503173038 | 87 | 118 | 3.0 | 14.0 | 0.00 | 0.00 | 0.00 | 26 | 1011.1 |
| 20260503172920 | 87 | 115 | 4.0 | 14.0 | 0.00 | 0.00 | 0.00 | 26 | 1011.1 |
| 20260503172820 | 87 | 113 | 4.0 | 14.0 | 0.00 | 0.00 | 0.00 | 26 | 1011.2 |
| 20260503172732 | 87 | 130 | 3.0 | 14.0 | 0.00 | 0.00 | 0.00 | 26 | 1011.1 |
| 20260503172633 | 87 | 113 | 3.0 | 14.0 | 0.00 | 0.00 | 0.00 | 26 | 1011.1 |
| 20260503172543 | 87 | 107 | 5.0 | 14.0 | 0.00 | 0.00 | 0.00 | 26 | 1011.1 |
| 20260503172421 | 87 | 117 | 5.0 | 14.0 | 0.00 | 0.00 | 0.00 | 26 | 1011.1 |
| 20260503172322 | 87 | 96 | 4.0 | 14.0 | 0.00 | 0.00 | 0.00 | 27 | 1011.1 |
| 20260503172252 | 87 | 102 | 6.0 | 14.0 | 0.00 | 0.00 | 0.00 | 26 | 1011.0 |
| 20260503172117 | 87 | 117 | 5.0 | 12.0 | 0.00 | 0.00 | 0.00 | 26 | 1011.1 |
| 20260503172019 | 87 | 115 | 3.0 | 12.0 | 0.00 | 0.00 | 0.00 | 27 | 1011.1 |
| 20260503171927 | 87 | 132 | 3.0 | 12.0 | 0.00 | 0.00 | 0.00 | 26 | 1011.1 |
| 20260503171828 | 87 | 125 | 4.0 | 12.0 | 0.00 | 0.00 | 0.00 | 26 | 1011.1 |
| 20260503171737 | 87 | 112 | 5.0 | 12.0 | 0.00 | 0.00 | 0.00 | 26 | 1011.1 |
| 20260503171619 | 87 | 118 | 5.0 | 12.0 | 0.00 | 0.00 | 0.00 | 27 | 1011.2 |
| 20260503171521 | 87 | 136 | 4.0 | 9.0 | 0.00 | 0.00 | 0.00 | 27 | 1011.2 |
| 20260503171435 | 87 | 141 | 3.0 | 12.0 | 0.00 | 0.00 | 0.00 | 27 | 1011.2 |
| 20260503171317 | 87 | 118 | 2.0 | 12.0 | 0.00 | 0.00 | 0.00 | 26 | 1011.2 |
| 20260503171217 | 87 | 120 | 2.0 | 12.0 | 0.00 | 0.00 | 0.00 | 26 | 1011.3 |
| 20260503171116 | 87 | 122 | 2.0 | 12.0 | 0.00 | 0.00 | 0.00 | 26 | 1011.3 |
| 20260503171025 | 87 | 123 | 2.0 | 12.0 | 0.00 | 0.00 | 0.00 | 27 | 1011.3 |
| 20260503170926 | 87 | 130 | 2.0 | 12.0 | 0.00 | 0.00 | 0.00 | 27 | 1011.2 |
| 20260503170832 | 87 | 122 | 3.0 | 12.0 | 0.00 | 0.00 | 0.00 | 27 | 1011.2 |
| 20260503170739 | 86 | 115 | 4.0 | 12.0 | 0.00 | 0.00 | 0.00 | 27 | 1011.2 |
| 20260503170622 | 87 | 140 | 4.0 | 12.0 | 0.00 | 0.00 | 0.00 | 26 | 1011.3 |
| 20260503170523 | 87 | 132 | 3.0 | 9.0 | 0.00 | 0.00 | 0.00 | 26 | 1011.2 |
| 20260503170431 | 87 | 134 | 3.0 | 9.0 | 0.00 | 0.00 | 0.00 | 26 | 1011.3 |
| 20260503170332 | 87 | 132 | 4.0 | 9.0 | 0.00 | 0.00 | 0.00 | 26 | 1011.3 |
| 20260503170217 | 87 | 125 | 3.0 | 9.0 | 0.00 | 0.00 | 0.00 | 26 | 1011.3 |
| 20260503170126 | 87 | 134 | 3.0 | 9.0 | 0.00 | 0.00 | 0.00 | 26 | 1011.3 |
| 20260503160144 | 81 | 122 | 2.0 | 5.0 | 0.00 | 0.00 | 0.00 | 33 | 1011.2 |
| 20260503150923 | 78 | 124 | 0.0 | 4.0 | 0.00 | 0.00 | 0.00 | 36 | 1011.0 |
| 20260503150826 | 78 | 124 | 0.0 | 4.0 | 0.00 | 0.00 | 0.00 | 36 | 1010.9 |
| 20260503150754 | 78 | 124 | 0.0 | 4.0 | 0.00 | 0.00 | 0.00 | 36 | 1010.9 |
| 20260503150616 | 78 | 127 | 0.0 | 4.0 | 0.00 | 0.00 | 0.00 | 37 | 1011.0 |
| 20260503150522 | 78 | 127 | 0.0 | 4.0 | 0.00 | 0.00 | 0.00 | 37 | 1010.9 |
| 20260503150430 | 78 | 127 | 0.0 | 5.0 | 0.00 | 0.00 | 0.00 | 37 | 1010.8 |
| 20260503150319 | 78 | 127 | 1.0 | 6.0 | 0.00 | 0.00 | 0.00 | 38 | 1010.8 |
| 20260503150219 | 78 | 127 | 2.0 | 6.0 | 0.00 | 0.00 | 0.00 | 38 | 1010.9 |
| 20260503150148 | 78 | 127 | 1.0 | 6.0 | 0.00 | 0.00 | 0.00 | 38 | 1010.8 |
| 20260503140252 | 74 | 112 | 0.0 | 1.0 | 0.00 | 0.00 | 0.00 | 39 | 1011.2 |
| 20260503140140 | 74 | 112 | 0.0 | 1.0 | 0.00 | 0.00 | 0.00 | 39 | 1011.2 |
| 20260503131332 | 74 | 108 | 0.0 | 1.0 | 0.00 | 0.00 | 0.00 | 37 | 1010.4 |
| 20260503131234 | 74 | 108 | 0.0 | 1.0 | 0.00 | 0.00 | 0.00 | 37 | 1010.3 |
| 20260503131115 | 74 | 108 | 0.0 | 1.0 | 0.00 | 0.00 | 0.00 | 37 | 1010.3 |
| 20260503131024 | 74 | 109 | 0.0 | 1.0 | 0.00 | 0.00 | 0.00 | 37 | 1010.3 |
| 20260503130925 | 74 | 110 | 0.0 | 1.0 | 0.00 | 0.00 | 0.00 | 37 | 1010.2 |
| 20260503130826 | 74 | 360 | 0.0 | 1.0 | 0.00 | 0.00 | 0.00 | 38 | 1010.2 |
| 20260503130739 | 74 | 360 | 0.0 | 1.0 | 0.00 | 0.00 | 0.00 | 38 | 1010.2 |
| 20260503130621 | 73 | 360 | 0.0 | 0.0 | 0.00 | 0.00 | 0.00 | 37 | 1010.3 |
| 20260503130524 | 73 | 360 | 0.0 | 0.0 | 0.00 | 0.00 | 0.00 | 37 | 1010.2 |
| 20260503130425 | 73 | 360 | 0.0 | 0.0 | 0.00 | 0.00 | 0.00 | 37 | 1010.3 |
| 20260503130334 | 73 | 360 | 0.0 | 0.0 | 0.00 | 0.00 | 0.00 | 37 | 1010.2 |
| 20260503130220 | 73 | 360 | 0.0 | 0.0 | 0.00 | 0.00 | 0.00 | 39 | 1010.2 |
| 20260503130122 | 73 | 360 | 0.0 | 0.0 | 0.00 | 0.00 | 0.00 | 38 | 1010.2 |
| 20260503110819 | 76 | 86 | 0.0 | 0.0 | 0.00 | 0.00 | 0.00 | 30 | 1010.0 |
| 20260503110733 | 76 | 86 | 0.0 | 0.0 | 0.00 | 0.00 | 0.00 | 30 | 1010.0 |
| 20260503110615 | 76 | 86 | 0.0 | 0.0 | 0.00 | 0.00 | 0.00 | 30 | 1010.0 |
| 20260503110517 | 76 | 86 | 0.0 | 0.0 | 0.00 | 0.00 | 0.00 | 30 | 1010.1 |
| 20260503110420 | 76 | 86 | 0.0 | 0.0 | 0.00 | 0.00 | 0.00 | 30 | 1010.1 |
| 20260503110349 | 76 | 86 | 0.0 | 0.0 | 0.00 | 0.00 | 0.00 | 30 | 1010.0 |
| 20260503110236 | 76 | 86 | 0.0 | 0.0 | 0.00 | 0.00 | 0.00 | 30 | 1010.1 |
| 20260503110122 | 76 | 86 | 0.0 | 0.0 | 0.00 | 0.00 | 0.00 | 29 | 1010.1 |
| 20260503100227 | 76 | 77 | 0.0 | 0.0 | 0.00 | 0.00 | 0.00 | 29 | 1010.1 |
| 20260503100136 | 76 | 77 | 0.0 | 0.0 | 0.00 | 0.00 | 0.00 | 28 | 1010.0 |
| 20260503090441 | 73 | 360 | 0.0 | 0.0 | 0.00 | 0.00 | 0.00 | 32 | 1009.8 |
| 20260503090322 | 73 | 360 | 0.0 | 0.0 | 0.00 | 0.00 | 0.00 | 32 | 1009.9 |
| 20260503090224 | 73 | 360 | 0.0 | 0.0 | 0.00 | 0.00 | 0.00 | 32 | 1009.8 |
| 20260503090126 | 73 | 360 | 0.0 | 0.0 | 0.00 | 0.00 | 0.00 | 32 | 1009.8 |
| 20260503081518 | 73 | 360 | 0.0 | 0.0 | 0.00 | 0.00 | 0.00 | 33 | 1010.5 |
| 20260503081440 | 73 | 360 | 0.0 | 0.0 | 0.00 | 0.00 | 0.00 | 33 | 1010.5 |
| 20260503081328 | 73 | 360 | 0.0 | 0.0 | 0.00 | 0.00 | 0.00 | 32 | 1010.5 |
| 20260503081231 | 73 | 360 | 0.0 | 0.0 | 0.00 | 0.00 | 0.00 | 32 | 1010.4 |
| 20260503081130 | 73 | 360 | 0.0 | 0.0 | 0.00 | 0.00 | 0.00 | 32 | 1010.5 |
| 20260503081040 | 73 | 360 | 0.0 | 0.0 | 0.00 | 0.00 | 0.00 | 32 | 1010.5 |
| 20260503080926 | 73 | 360 | 0.0 | 0.0 | 0.00 | 0.00 | 0.00 | 32 | 1010.4 |
| 20260503080847 | 73 | 360 | 0.0 | 0.0 | 0.00 | 0.00 | 0.00 | 32 | 1010.4 |
| 20260503080736 | 73 | 360 | 0.0 | 0.0 | 0.00 | 0.00 | 0.00 | 32 | 1010.5 |
| 20260503080616 | 74 | 360 | 0.0 | 0.0 | 0.00 | 0.00 | 0.00 | 31 | 1010.4 |
| 20260503080524 | 74 | 360 | 0.0 | 0.0 | 0.00 | 0.00 | 0.00 | 31 | 1010.4 |
| 20260503080426 | 73 | 360 | 0.0 | 0.0 | 0.00 | 0.00 | 0.00 | 31 | 1010.4 |
| 20260503080334 | 73 | 360 | 0.0 | 0.0 | 0.00 | 0.00 | 0.00 | 32 | 1010.5 |
| 20260503080219 | 73 | 360 | 0.0 | 0.0 | 0.00 | 0.00 | 0.00 | 32 | 1010.4 |
| 20260503080121 | 73 | 360 | 0.0 | 0.0 | 0.00 | 0.00 | 0.00 | 32 | 1010.4 |
| 20260503072918 | 75 | 360 | 0.0 | 0.0 | 0.00 | 0.00 | 0.00 | 31 | 1010.5 |
| 20260503072827 | 75 | 360 | 0.0 | 0.0 | 0.00 | 0.00 | 0.00 | 31 | 1010.6 |
| 20260503072730 | 75 | 360 | 0.0 | 0.0 | 0.00 | 0.00 | 0.00 | 32 | 1010.6 |
| 20260503072632 | 75 | 360 | 0.0 | 0.0 | 0.00 | 0.00 | 0.00 | 32 | 1010.5 |
| 20260503072541 | 75 | 360 | 0.0 | 0.0 | 0.00 | 0.00 | 0.00 | 32 | 1010.7 |
| 20260503072421 | 75 | 360 | 0.0 | 0.0 | 0.00 | 0.00 | 0.00 | 32 | 1010.6 |
| 20260503072334 | 75 | 360 | 0.0 | 0.0 | 0.00 | 0.00 | 0.00 | 32 | 1010.6 |
| 20260503072216 | 75 | 360 | 0.0 | 0.0 | 0.00 | 0.00 | 0.00 | 32 | 1010.6 |
| 20260503072119 | 75 | 360 | 0.0 | 0.0 | 0.00 | 0.00 | 0.00 | 32 | 1010.6 |
| 20260503072022 | 75 | 360 | 0.0 | 0.0 | 0.00 | 0.00 | 0.00 | 31 | 1010.6 |
| 20260503071951 | 75 | 360 | 0.0 | 0.0 | 0.00 | 0.00 | 0.00 | 31 | 1010.6 |
| 20260503071831 | 75 | 360 | 0.0 | 0.0 | 0.00 | 0.00 | 0.00 | 31 | 1010.6 |
| 20260503071717 | 76 | 360 | 0.0 | 0.0 | 0.00 | 0.00 | 0.00 | 31 | 1010.6 |
| 20260503071646 | 76 | 360 | 0.0 | 0.0 | 0.00 | 0.00 | 0.00 | 31 | 1010.6 |
| 20260503071535 | 76 | 360 | 0.0 | 0.0 | 0.00 | 0.00 | 0.00 | 31 | 1010.6 |
| 20260503071417 | 76 | 360 | 0.0 | 0.0 | 0.00 | 0.00 | 0.00 | 31 | 1010.5 |
| 20260503071337 | 76 | 360 | 0.0 | 0.0 | 0.00 | 0.00 | 0.00 | 31 | 1010.6 |
| 20260503071225 | 76 | 360 | 0.0 | 0.0 | 0.00 | 0.00 | 0.00 | 30 | 1010.5 |
| 20260503071128 | 76 | 360 | 0.0 | 0.0 | 0.00 | 0.00 | 0.00 | 30 | 1010.5 |
| 20260503071033 | 76 | 360 | 0.0 | 0.0 | 0.00 | 0.00 | 0.00 | 30 | 1010.6 |
| 20260503070942 | 76 | 82 | 0.0 | 0.0 | 0.00 | 0.00 | 0.00 | 30 | 1010.5 |
| 20260503070823 | 76 | 82 | 0.0 | 0.0 | 0.00 | 0.00 | 0.00 | 30 | 1010.4 |
| 20260503070724 | 76 | 81 | 0.0 | 0.0 | 0.00 | 0.00 | 0.00 | 30 | 1010.5 |
| 20260503070633 | 76 | 81 | 0.0 | 0.0 | 0.00 | 0.00 | 0.00 | 30 | 1010.4 |
| 20260503070535 | 76 | 81 | 0.0 | 0.0 | 0.00 | 0.00 | 0.00 | 30 | 1010.4 |
| 20260503070421 | 76 | 81 | 0.0 | 0.0 | 0.00 | 0.00 | 0.00 | 29 | 1010.4 |
| 20260503070323 | 76 | 81 | 0.0 | 0.0 | 0.00 | 0.00 | 0.00 | 29 | 1010.3 |
| 20260503070232 | 76 | 81 | 0.0 | 0.0 | 0.00 | 0.00 | 0.00 | 29 | 1010.4 |
| 20260503070132 | 76 | 81 | 0.0 | 0.0 | 0.00 | 0.00 | 0.00 | 29 | 1010.4 |
| 20260503060326 | 78 | 81 | 0.0 | 0.0 | 0.00 | 0.00 | 0.00 | 26 | 1010.0 |
| 20260503060226 | 78 | 81 | 0.0 | 0.0 | 0.00 | 0.00 | 0.00 | 26 | 1010.0 |
| 20260503060155 | 78 | 81 | 0.0 | 0.0 | 0.00 | 0.00 | 0.00 | 26 | 1010.0 |
| 20260503055034 | 78 | 81 | 0.0 | 0.0 | 0.00 | 0.00 | 0.00 | 25 | 1009.9 |
| 20260503054956 | 78 | 81 | 0.0 | 0.0 | 0.00 | 0.00 | 0.00 | 25 | 1009.9 |
| 20260503054817 | 78 | 81 | 0.0 | 0.0 | 0.00 | 0.00 | 0.00 | 25 | 1009.9 |
| 20260503054726 | 78 | 81 | 0.0 | 0.0 | 0.00 | 0.00 | 0.00 | 25 | 1009.9 |
| 20260503054632 | 78 | 81 | 0.0 | 0.0 | 0.00 | 0.00 | 0.00 | 25 | 1010.0 |
| 20260503054535 | 78 | 81 | 0.0 | 0.0 | 0.00 | 0.00 | 0.00 | 26 | 1010.0 |
| 20260503054416 | 78 | 81 | 0.0 | 0.0 | 0.00 | 0.00 | 0.00 | 26 | 1010.0 |
| 20260503054327 | 78 | 81 | 0.0 | 0.0 | 0.00 | 0.00 | 0.00 | 26 | 1010.0 |
| 20260503054256 | 78 | 81 | 0.0 | 0.0 | 0.00 | 0.00 | 0.00 | 26 | 1009.9 |
| 20260503054156 | 78 | 81 | 0.0 | 0.0 | 0.00 | 0.00 | 0.00 | 26 | 1010.0 |
| 20260503054018 | 78 | 81 | 0.0 | 0.0 | 0.00 | 0.00 | 0.00 | 26 | 1009.9 |
| 20260503053929 | 78 | 81 | 0.0 | 0.0 | 0.00 | 0.00 | 0.00 | 26 | 1010.0 |
| 20260503053829 | 78 | 81 | 0.0 | 0.0 | 0.00 | 0.00 | 0.00 | 26 | 1010.0 |
| 20260503053737 | 79 | 81 | 0.0 | 0.0 | 0.00 | 0.00 | 0.00 | 26 | 1010.0 |
| 20260503053619 | 79 | 81 | 0.0 | 0.0 | 0.00 | 0.00 | 0.00 | 25 | 1010.0 |
| 20260503053521 | 79 | 81 | 0.0 | 0.0 | 0.00 | 0.00 | 0.00 | 25 | 1009.9 |
| 20260503053424 | 79 | 81 | 0.0 | 0.0 | 0.00 | 0.00 | 0.00 | 25 | 1009.9 |
| 20260503053337 | 79 | 81 | 0.0 | 0.0 | 0.00 | 0.00 | 0.00 | 25 | 1010.0 |
| 20260503053217 | 79 | 81 | 0.0 | 0.0 | 0.00 | 0.00 | 0.00 | 25 | 1010.0 |
| 20260503053119 | 79 | 81 | 0.0 | 0.0 | 0.00 | 0.00 | 0.00 | 25 | 1009.9 |
| 20260503053027 | 79 | 81 | 0.0 | 0.0 | 0.00 | 0.00 | 0.00 | 25 | 1009.8 |
| 20260503052935 | 79 | 81 | 0.0 | 0.0 | 0.00 | 0.00 | 0.00 | 25 | 1009.8 |
| 20260503052838 | 79 | 81 | 0.0 | 0.0 | 0.00 | 0.00 | 0.00 | 25 | 1009.9 |
| 20260503052725 | 79 | 81 | 0.0 | 0.0 | 0.00 | 0.00 | 0.00 | 25 | 1009.9 |
| 20260503052627 | 79 | 81 | 0.0 | 0.0 | 0.00 | 0.00 | 0.00 | 25 | 1010.0 |
| 20260503052539 | 79 | 81 | 0.0 | 0.0 | 0.00 | 0.00 | 0.00 | 25 | 1009.9 |
| 20260503052421 | 79 | 81 | 0.0 | 0.0 | 0.00 | 0.00 | 0.00 | 25 | 1009.9 |
| 20260503052343 | 79 | 81 | 0.0 | 0.0 | 0.00 | 0.00 | 0.00 | 25 | 1009.9 |
| 20260503052232 | 79 | 81 | 0.0 | 0.0 | 0.00 | 0.00 | 0.00 | 25 | 1009.9 |
| 20260503052135 | 79 | 81 | 0.0 | 0.0 | 0.00 | 0.00 | 0.00 | 24 | 1009.8 |
| 20260503052023 | 79 | 81 | 0.0 | 0.0 | 0.00 | 0.00 | 0.00 | 24 | 1009.9 |
| 20260503051924 | 79 | 81 | 0.0 | 0.0 | 0.00 | 0.00 | 0.00 | 25 | 1009.9 |
| 20260503051832 | 79 | 81 | 0.0 | 0.0 | 0.00 | 0.00 | 0.00 | 24 | 1009.9 |
| 20260503051740 | 79 | 81 | 0.0 | 0.0 | 0.00 | 0.00 | 0.00 | 24 | 1009.8 |
| 20260503051622 | 79 | 81 | 0.0 | 0.0 | 0.00 | 0.00 | 0.00 | 25 | 1009.9 |
| 20260503051525 | 79 | 81 | 0.0 | 0.0 | 0.00 | 0.00 | 0.00 | 25 | 1009.9 |
| 20260503051433 | 79 | 81 | 0.0 | 0.0 | 0.00 | 0.00 | 0.00 | 24 | 1009.9 |
| 20260503051356 | 79 | 81 | 0.0 | 0.0 | 0.00 | 0.00 | 0.00 | 24 | 1009.8 |
| 20260503051219 | 79 | 81 | 0.0 | 0.0 | 0.00 | 0.00 | 0.00 | 25 | 1009.9 |
| 20260503051128 | 79 | 81 | 0.0 | 0.0 | 0.00 | 0.00 | 0.00 | 25 | 1009.9 |
| 20260503051037 | 79 | 81 | 0.0 | 0.0 | 0.00 | 0.00 | 0.00 | 24 | 1009.8 |
| 20260503050939 | 80 | 81 | 0.0 | 0.0 | 0.00 | 0.00 | 0.00 | 24 | 1009.8 |
| 20260503050819 | 80 | 81 | 0.0 | 0.0 | 0.00 | 0.00 | 0.00 | 24 | 1009.8 |
| 20260503050726 | 80 | 81 | 0.0 | 0.0 | 0.00 | 0.00 | 0.00 | 24 | 1009.8 |
| 20260503050628 | 80 | 81 | 0.0 | 0.0 | 0.00 | 0.00 | 0.00 | 24 | 1009.8 |
| 20260503050537 | 80 | 81 | 0.0 | 0.0 | 0.00 | 0.00 | 0.00 | 24 | 1009.8 |
| 20260503050423 | 80 | 81 | 0.0 | 0.0 | 0.00 | 0.00 | 0.00 | 24 | 1009.8 |
| 20260503050345 | 80 | 81 | 0.0 | 0.0 | 0.00 | 0.00 | 0.00 | 24 | 1009.8 |
| 20260503050233 | 80 | 81 | 0.0 | 0.0 | 0.00 | 0.00 | 0.00 | 24 | 1009.7 |
| 20260503050134 | 80 | 81 | 0.0 | 0.0 | 0.00 | 0.00 | 0.00 | 24 | 1009.8 |
| 20260503050028 | 80 | 81 | 0.0 | 0.0 | 0.00 | 0.00 | 0.00 | 24 | 1009.7 |
| 20260503045924 | 80 | 81 | 0.0 | 0.0 | 0.00 | 0.00 | 0.00 | 24 | 1009.8 |
| 20260503045830 | 80 | 81 | 0.0 | 0.0 | 0.00 | 0.00 | 0.00 | 24 | 1009.8 |
| 20260503045733 | 81 | 81 | 0.0 | 0.0 | 0.00 | 0.00 | 0.00 | 24 | 1009.8 |
| 20260503045641 | 81 | 81 | 0.0 | 0.0 | 0.00 | 0.00 | 0.00 | 24 | 1009.7 |
| 20260503045522 | 81 | 81 | 0.0 | 0.0 | 0.00 | 0.00 | 0.00 | 23 | 1009.8 |
| 20260503045441 | 81 | 81 | 0.0 | 0.0 | 0.00 | 0.00 | 0.00 | 23 | 1009.8 |
| 20260503045324 | 81 | 81 | 0.0 | 0.0 | 0.00 | 0.00 | 0.00 | 23 | 1009.6 |
| 20260503045229 | 81 | 81 | 0.0 | 0.0 | 0.00 | 0.00 | 0.00 | 24 | 1009.7 |
| 20260503045139 | 81 | 81 | 0.0 | 0.0 | 0.00 | 0.00 | 0.00 | 24 | 1009.6 |
| 20260503045020 | 81 | 81 | 0.0 | 0.0 | 0.00 | 0.00 | 0.00 | 24 | 1009.7 |
| 20260503044921 | 81 | 81 | 0.0 | 0.0 | 0.00 | 0.00 | 0.00 | 24 | 1009.6 |
| 20260503044830 | 81 | 81 | 0.0 | 0.0 | 0.00 | 0.00 | 0.00 | 24 | 1009.8 |
| 20260503044731 | 81 | 81 | 0.0 | 0.0 | 0.00 | 0.00 | 0.00 | 24 | 1009.7 |
| 20260503044640 | 81 | 81 | 0.0 | 0.0 | 0.00 | 0.00 | 0.00 | 24 | 1009.7 |
| 20260503044525 | 81 | 81 | 0.0 | 0.0 | 0.00 | 0.00 | 0.00 | 24 | 1009.8 |
| 20260503044427 | 81 | 81 | 0.0 | 0.0 | 0.00 | 0.00 | 0.00 | 24 | 1009.8 |
| 20260503044330 | 81 | 81 | 0.0 | 0.0 | 0.00 | 0.00 | 0.00 | 24 | 1009.8 |
| 20260503044239 | 81 | 81 | 0.0 | 0.0 | 0.00 | 0.00 | 0.00 | 24 | 1009.8 |
| 20260503044141 | 81 | 81 | 0.0 | 0.0 | 0.00 | 0.00 | 0.00 | 24 | 1009.8 |
| 20260503044048 | 81 | 81 | 0.0 | 0.0 | 0.00 | 0.00 | 0.00 | 24 | 1009.8 |
| 20260503043937 | 81 | 81 | 0.0 | 0.0 | 0.00 | 0.00 | 0.00 | 24 | 1009.8 |
| 20260503043841 | 81 | 81 | 0.0 | 0.0 | 0.00 | 0.00 | 0.00 | 24 | 1009.7 |
| 20260503043722 | 81 | 81 | 0.0 | 0.0 | 0.00 | 0.00 | 0.00 | 23 | 1009.8 |
| 20260503043632 | 81 | 81 | 0.0 | 0.0 | 0.00 | 0.00 | 0.00 | 24 | 1009.8 |
| 20260503043534 | 81 | 81 | 0.0 | 0.0 | 0.00 | 0.00 | 0.00 | 24 | 1009.9 |
| 20260503043416 | 81 | 81 | 0.0 | 0.0 | 0.00 | 0.00 | 0.00 | 24 | 1009.9 |
| 20260503043324 | 81 | 81 | 0.0 | 0.0 | 0.00 | 0.00 | 0.00 | 24 | 1009.9 |
| 20260503043246 | 81 | 81 | 0.0 | 0.0 | 0.00 | 0.00 | 0.00 | 23 | 1009.9 |
| 20260503043138 | 81 | 81 | 0.0 | 0.0 | 0.00 | 0.00 | 0.00 | 23 | 1009.8 |
| 20260503043020 | 81 | 81 | 0.0 | 0.0 | 0.00 | 0.00 | 0.00 | 23 | 1009.8 |
| 20260503042943 | 81 | 81 | 0.0 | 0.0 | 0.00 | 0.00 | 0.00 | 23 | 1009.8 |
| 20260503042851 | 81 | 81 | 0.0 | 0.0 | 0.00 | 0.00 | 0.00 | 23 | 1009.7 |
| 20260503042730 | 81 | 81 | 0.0 | 0.0 | 0.00 | 0.00 | 0.00 | 23 | 1009.7 |
| 20260503042617 | 81 | 81 | 0.0 | 0.0 | 0.00 | 0.00 | 0.00 | 23 | 1009.7 |
| 20260503042520 | 81 | 81 | 0.0 | 0.0 | 0.00 | 0.00 | 0.00 | 23 | 1009.7 |
| 20260503042429 | 81 | 81 | 0.0 | 0.0 | 0.00 | 0.00 | 0.00 | 23 | 1009.8 |
| 20260503042333 | 81 | 81 | 0.0 | 0.0 | 0.00 | 0.00 | 0.00 | 23 | 1009.7 |
| 20260503042235 | 81 | 81 | 0.0 | 0.0 | 0.00 | 0.00 | 0.00 | 23 | 1009.7 |
| 20260503042117 | 81 | 81 | 0.0 | 0.0 | 0.00 | 0.00 | 0.00 | 23 | 1009.7 |
| 20260503042027 | 81 | 81 | 0.0 | 0.0 | 0.00 | 0.00 | 0.00 | 22 | 1009.7 |
| 20260503041929 | 82 | 81 | 0.0 | 0.0 | 0.00 | 0.00 | 0.00 | 22 | 1009.7 |
| 20260503041835 | 82 | 81 | 0.0 | 0.0 | 0.00 | 0.00 | 0.00 | 23 | 1009.6 |
| 20260503041717 | 82 | 81 | 0.0 | 0.0 | 0.00 | 0.00 | 0.00 | 22 | 1009.6 |
| 20260503041626 | 82 | 81 | 0.0 | 0.0 | 0.00 | 0.00 | 0.00 | 22 | 1009.6 |
| 20260503041530 | 82 | 81 | 0.0 | 0.0 | 0.00 | 0.00 | 0.00 | 22 | 1009.6 |
| 20260503041437 | 82 | 81 | 0.0 | 0.0 | 0.00 | 0.00 | 0.00 | 22 | 1009.5 |
| 20260503041338 | 82 | 81 | 0.0 | 0.0 | 0.00 | 0.00 | 0.00 | 21 | 1009.5 |
| 20260503041219 | 82 | 81 | 0.0 | 0.0 | 0.00 | 0.00 | 0.00 | 22 | 1009.5 |
| 20260503041132 | 82 | 81 | 0.0 | 0.0 | 0.00 | 0.00 | 0.00 | 21 | 1009.4 |
| 20260503041034 | 82 | 81 | 0.0 | 0.0 | 0.00 | 0.00 | 0.00 | 21 | 1009.4 |
| 20260503040916 | 82 | 81 | 0.0 | 0.0 | 0.00 | 0.00 | 0.00 | 21 | 1009.5 |
| 20260503040825 | 82 | 81 | 0.0 | 0.0 | 0.00 | 0.00 | 0.00 | 21 | 1009.4 |
| 20260503040727 | 83 | 81 | 0.0 | 0.0 | 0.00 | 0.00 | 0.00 | 21 | 1009.4 |
| 20260503040629 | 83 | 81 | 0.0 | 0.0 | 0.00 | 0.00 | 0.00 | 21 | 1009.3 |
| 20260503040542 | 83 | 81 | 0.0 | 0.0 | 0.00 | 0.00 | 0.00 | 21 | 1009.3 |
| 20260503040442 | 83 | 81 | 0.0 | 0.0 | 0.00 | 0.00 | 0.00 | 21 | 1009.3 |
| 20260503040322 | 83 | 81 | 0.0 | 0.0 | 0.00 | 0.00 | 0.00 | 21 | 1009.2 |
| 20260503040232 | 83 | 81 | 0.0 | 0.0 | 0.00 | 0.00 | 0.00 | 21 | 1009.1 |
| 20260503040132 | 83 | 81 | 0.0 | 0.0 | 0.00 | 0.00 | 0.00 | 21 | 1009.2 |
| 20260503040031 | 83 | 81 | 0.0 | 0.0 | 0.00 | 0.00 | 0.00 | 21 | 1009.2 |
| 20260503035920 | 83 | 81 | 0.0 | 0.0 | 0.00 | 0.00 | 0.00 | 20 | 1009.2 |
| 20260503035833 | 83 | 81 | 0.0 | 0.0 | 0.00 | 0.00 | 0.00 | 21 | 1009.2 |
| 20260503035716 | 83 | 81 | 0.0 | 0.0 | 0.00 | 0.00 | 0.00 | 20 | 1009.2 |
| 20260503035617 | 83 | 81 | 0.0 | 0.0 | 0.00 | 0.00 | 0.00 | 20 | 1009.2 |
| 20260503035546 | 84 | 81 | 0.0 | 0.0 | 0.00 | 0.00 | 0.00 | 20 | 1009.2 |
| 20260503035433 | 84 | 81 | 0.0 | 0.0 | 0.00 | 0.00 | 0.00 | 19 | 1009.2 |
| 20260503035334 | 84 | 81 | 0.0 | 0.0 | 0.00 | 0.00 | 0.00 | 19 | 1009.2 |
| 20260503035216 | 84 | 81 | 0.0 | 0.0 | 0.00 | 0.00 | 0.00 | 19 | 1009.1 |
| 20260503035129 | 84 | 81 | 0.0 | 0.0 | 0.00 | 0.00 | 0.00 | 19 | 1009.1 |
| 20260503035033 | 84 | 81 | 0.0 | 0.0 | 0.00 | 0.00 | 0.00 | 19 | 1009.1 |
| 20260503035002 | 84 | 81 | 0.0 | 0.0 | 0.00 | 0.00 | 0.00 | 19 | 1009.1 |
| 20260503034843 | 84 | 81 | 0.0 | 0.0 | 0.00 | 0.00 | 0.00 | 19 | 1009.0 |
| 20260503034724 | 84 | 81 | 0.0 | 0.0 | 0.00 | 0.00 | 0.00 | 19 | 1009.1 |
| 20260503034633 | 84 | 81 | 0.0 | 0.0 | 0.00 | 0.00 | 0.00 | 19 | 1009.1 |
| 20260503034520 | 84 | 81 | 0.0 | 0.0 | 0.00 | 0.00 | 0.00 | 19 | 1009.0 |
| 20260503034423 | 84 | 81 | 0.0 | 0.0 | 0.00 | 0.00 | 0.00 | 20 | 1008.9 |
| 20260503034324 | 84 | 81 | 0.0 | 0.0 | 0.00 | 0.00 | 0.00 | 20 | 1008.9 |
| 20260503034233 | 84 | 81 | 0.0 | 0.0 | 0.00 | 0.00 | 0.00 | 20 | 1008.9 |
| 20260503034135 | 84 | 81 | 0.0 | 0.0 | 0.00 | 0.00 | 0.00 | 20 | 1008.8 |
| 20260503034016 | 84 | 81 | 0.0 | 0.0 | 0.00 | 0.00 | 0.00 | 20 | 1008.8 |
| 20260503033929 | 84 | 81 | 0.0 | 0.0 | 0.00 | 0.00 | 0.00 | 20 | 1008.8 |
| 20260503033832 | 84 | 81 | 0.0 | 0.0 | 0.00 | 0.00 | 0.00 | 20 | 1008.8 |
| 20260503033732 | 84 | 81 | 0.0 | 0.0 | 0.00 | 0.00 | 0.00 | 20 | 1008.8 |
| 20260503033615 | 84 | 81 | 0.0 | 0.0 | 0.00 | 0.00 | 0.00 | 20 | 1008.9 |
| 20260503033525 | 84 | 81 | 0.0 | 0.0 | 0.00 | 0.00 | 0.00 | 20 | 1008.8 |
| 20260503033425 | 84 | 81 | 0.0 | 0.0 | 0.00 | 0.00 | 0.00 | 20 | 1008.9 |
| 20260503033335 | 84 | 81 | 0.0 | 0.0 | 0.00 | 0.00 | 0.00 | 20 | 1008.8 |
| 20260503033220 | 84 | 81 | 0.0 | 0.0 | 0.00 | 0.00 | 0.00 | 20 | 1008.8 |
| 20260503033121 | 84 | 81 | 0.0 | 0.0 | 0.00 | 0.00 | 0.00 | 20 | 1008.8 |
| 20260503033030 | 84 | 81 | 0.0 | 0.0 | 0.00 | 0.00 | 0.00 | 20 | 1008.8 |
| 20260503032932 | 84 | 81 | 0.0 | 0.0 | 0.00 | 0.00 | 0.00 | 19 | 1008.8 |
| 20260503032841 | 85 | 81 | 0.0 | 0.0 | 0.00 | 0.00 | 0.00 | 19 | 1008.9 |
| 20260503032722 | 85 | 81 | 0.0 | 0.0 | 0.00 | 0.00 | 0.00 | 20 | 1008.9 |
| 20260503032627 | 85 | 81 | 0.0 | 0.0 | 0.00 | 0.00 | 0.00 | 20 | 1008.9 |
| 20260503032537 | 85 | 81 | 0.0 | 0.0 | 0.00 | 0.00 | 0.00 | 19 | 1008.9 |
| 20260503032419 | 85 | 81 | 0.0 | 0.0 | 0.00 | 0.00 | 0.00 | 19 | 1008.9 |
| 20260503032322 | 85 | 81 | 0.0 | 0.0 | 0.00 | 0.00 | 0.00 | 19 | 1008.9 |
| 20260503032250 | 85 | 81 | 0.0 | 0.0 | 0.00 | 0.00 | 0.00 | 19 | 1008.9 |
| 20260503032130 | 86 | 81 | 0.0 | 0.0 | 0.00 | 0.00 | 0.00 | 19 | 1008.7 |
| 20260503032039 | 86 | 81 | 0.0 | 0.0 | 0.00 | 0.00 | 0.00 | 19 | 1008.8 |
| 20260503031926 | 86 | 81 | 0.0 | 0.0 | 0.00 | 0.00 | 0.00 | 19 | 1008.8 |
| 20260503031848 | 86 | 81 | 0.0 | 0.0 | 0.00 | 0.00 | 0.00 | 19 | 1008.9 |
| 20260503031717 | 86 | 81 | 0.0 | 0.0 | 0.00 | 0.00 | 0.00 | 18 | 1008.9 |
| 20260503031618 | 86 | 81 | 0.0 | 0.0 | 0.00 | 0.00 | 0.00 | 18 | 1008.9 |
| 20260503031520 | 86 | 81 | 0.0 | 0.0 | 0.00 | 0.00 | 0.00 | 18 | 1008.9 |
| 20260503031429 | 86 | 81 | 0.0 | 0.0 | 0.00 | 0.00 | 0.00 | 18 | 1008.8 |
| 20260503031335 | 86 | 81 | 0.0 | 0.0 | 0.00 | 0.00 | 0.00 | 18 | 1008.8 |
| 20260503031217 | 86 | 81 | 0.0 | 0.0 | 0.00 | 0.00 | 0.00 | 18 | 1008.7 |
| 20260503031119 | 85 | 81 | 0.0 | 0.0 | 0.00 | 0.00 | 0.00 | 18 | 1008.7 |
| 20260503031026 | 86 | 81 | 0.0 | 0.0 | 0.00 | 0.00 | 0.00 | 18 | 1008.8 |
| 20260503030954 | 86 | 81 | 0.0 | 0.0 | 0.00 | 0.00 | 0.00 | 18 | 1008.8 |
| 20260503030816 | 85 | 81 | 0.0 | 0.0 | 0.00 | 0.00 | 0.00 | 18 | 1008.7 |
| 20260503030717 | 85 | 81 | 0.0 | 0.0 | 0.00 | 0.00 | 0.00 | 18 | 1008.7 |
| 20260503030646 | 86 | 81 | 0.0 | 0.0 | 0.00 | 0.00 | 0.00 | 18 | 1008.8 |
| 20260503030531 | 85 | 81 | 0.0 | 0.0 | 0.00 | 0.00 | 0.00 | 18 | 1008.8 |
| 20260503030417 | 86 | 81 | 0.0 | 0.0 | 0.00 | 0.00 | 0.00 | 18 | 1008.7 |
| 20260503030319 | 86 | 81 | 0.0 | 0.0 | 0.00 | 0.00 | 0.00 | 18 | 1008.7 |
| 20260503030229 | 86 | 81 | 0.0 | 0.0 | 0.00 | 0.00 | 0.00 | 18 | 1008.7 |
| 20260503030129 | 86 | 81 | 0.0 | 0.0 | 0.00 | 0.00 | 0.00 | 19 | 1008.8 |
| 20260503030049 | 86 | 81 | 0.0 | 0.0 | 0.00 | 0.00 | 0.00 | 18 | 1008.8 |
| 20260503025947 | 86 | 81 | 0.0 | 0.0 | 0.00 | 0.00 | 0.00 | 18 | 1008.8 |
| 20260503025847 | 86 | 81 | 0.0 | 0.0 | 0.00 | 0.00 | 0.00 | 18 | 1008.8 |
| 20260503025736 | 86 | 81 | 0.0 | 0.0 | 0.00 | 0.00 | 0.00 | 18 | 1008.9 |
| 20260503025618 | 86 | 81 | 0.0 | 0.0 | 0.00 | 0.00 | 0.00 | 18 | 1008.9 |
| 20260503025520 | 86 | 81 | 0.0 | 0.0 | 0.00 | 0.00 | 0.00 | 18 | 1008.8 |
| 20260503025449 | 86 | 81 | 0.0 | 0.0 | 0.00 | 0.00 | 0.00 | 18 | 1008.9 |
| 20260503025330 | 86 | 81 | 0.0 | 0.0 | 0.00 | 0.00 | 0.00 | 18 | 1008.8 |
| 20260503025239 | 86 | 81 | 0.0 | 0.0 | 0.00 | 0.00 | 0.00 | 18 | 1008.9 |
| 20260503025125 | 87 | 81 | 0.0 | 0.0 | 0.00 | 0.00 | 0.00 | 18 | 1008.8 |
| 20260503025027 | 87 | 81 | 0.0 | 0.0 | 0.00 | 0.00 | 0.00 | 18 | 1008.8 |
| 20260503024936 | 87 | 81 | 0.0 | 0.0 | 0.00 | 0.00 | 0.00 | 18 | 1008.7 |
| 20260503024818 | 87 | 81 | 0.0 | 0.0 | 0.00 | 0.00 | 0.00 | 17 | 1008.8 |
| 20260503024720 | 87 | 81 | 0.0 | 0.0 | 0.00 | 0.00 | 0.00 | 18 | 1008.8 |
| 20260503024648 | 87 | 81 | 0.0 | 0.0 | 0.00 | 0.00 | 0.00 | 18 | 1008.7 |
| 20260503024530 | 87 | 81 | 0.0 | 0.0 | 0.00 | 0.00 | 0.00 | 18 | 1008.7 |
| 20260503024504 | 87 | 81 | 0.0 | 0.0 | 0.00 | 0.00 | 0.00 | 17 | 1008.7 |
| 20260503024325 | 87 | 81 | 0.0 | 0.0 | 0.00 | 0.00 | 0.00 | 18 | 1008.7 |
| 20260503024225 | 87 | 81 | 0.0 | 0.0 | 0.00 | 0.00 | 0.00 | 18 | 1008.5 |
| 20260503024133 | 87 | 81 | 0.0 | 0.0 | 0.00 | 0.00 | 0.00 | 17 | 1008.6 |
| 20260503024032 | 87 | 81 | 0.0 | 0.0 | 0.00 | 0.00 | 0.00 | 17 | 1008.6 |
| 20260503023941 | 87 | 81 | 0.0 | 0.0 | 0.00 | 0.00 | 0.00 | 17 | 1008.6 |
| 20260503023823 | 87 | 81 | 0.0 | 0.0 | 0.00 | 0.00 | 0.00 | 17 | 1008.5 |
| 20260503023729 | 87 | 81 | 0.0 | 0.0 | 0.00 | 0.00 | 0.00 | 17 | 1008.5 |
| 20260503023637 | 88 | 81 | 0.0 | 0.0 | 0.00 | 0.00 | 0.00 | 17 | 1008.6 |
| 20260503023520 | 88 | 81 | 0.0 | 0.0 | 0.00 | 0.00 | 0.00 | 17 | 1008.6 |
| 20260503023422 | 88 | 81 | 0.0 | 0.0 | 0.00 | 0.00 | 0.00 | 17 | 1008.6 |
| 20260503023324 | 88 | 81 | 0.0 | 0.0 | 0.00 | 0.00 | 0.00 | 17 | 1008.7 |
| 20260503023234 | 88 | 81 | 0.0 | 0.0 | 0.00 | 0.00 | 0.00 | 17 | 1008.7 |
| 20260503023120 | 88 | 81 | 0.0 | 0.0 | 0.00 | 0.00 | 0.00 | 17 | 1008.7 |
| 20260503023023 | 88 | 81 | 0.0 | 0.0 | 0.00 | 0.00 | 0.00 | 17 | 1008.6 |
| 20260503022924 | 88 | 81 | 0.0 | 0.0 | 0.00 | 0.00 | 0.00 | 16 | 1008.6 |
| 20260503022834 | 88 | 81 | 0.0 | 0.0 | 0.00 | 0.00 | 0.00 | 16 | 1008.6 |
| 20260503022716 | 88 | 81 | 0.0 | 0.0 | 0.00 | 0.00 | 0.00 | 16 | 1008.6 |
| 20260503022623 | 88 | 81 | 0.0 | 0.0 | 0.00 | 0.00 | 0.00 | 16 | 1008.6 |
| 20260503022526 | 88 | 81 | 0.0 | 0.0 | 0.00 | 0.00 | 0.00 | 16 | 1008.5 |
| 20260503022455 | 88 | 81 | 0.0 | 0.0 | 0.00 | 0.00 | 0.00 | 16 | 1008.5 |
| 20260503022315 | 89 | 81 | 0.0 | 0.0 | 0.00 | 0.00 | 0.00 | 16 | 1008.5 |
| 20260503022226 | 89 | 81 | 0.0 | 0.0 | 0.00 | 0.00 | 0.00 | 16 | 1008.4 |
| 20260503022148 | 88 | 81 | 0.0 | 0.0 | 0.00 | 0.00 | 0.00 | 16 | 1008.4 |
| 20260503022035 | 89 | 81 | 0.0 | 0.0 | 0.00 | 0.00 | 0.00 | 16 | 1008.4 |
| 20260503021921 | 89 | 81 | 0.0 | 0.0 | 0.00 | 0.00 | 0.00 | 16 | 1008.4 |
| 20260503021843 | 89 | 81 | 0.0 | 0.0 | 0.00 | 0.00 | 0.00 | 16 | 1008.3 |
| 20260503021731 | 89 | 81 | 0.0 | 0.0 | 0.00 | 0.00 | 0.00 | 16 | 1008.3 |
| 20260503021633 | 89 | 81 | 0.0 | 0.0 | 0.00 | 0.00 | 0.00 | 16 | 1008.4 |
| 20260503021535 | 89 | 81 | 0.0 | 0.0 | 0.00 | 0.00 | 0.00 | 16 | 1008.3 |
| 20260503021416 | 89 | 81 | 0.0 | 0.0 | 0.00 | 0.00 | 0.00 | 16 | 1008.3 |
| 20260503021324 | 89 | 81 | 0.0 | 0.0 | 0.00 | 0.00 | 0.00 | 16 | 1008.4 |
| 20260503021230 | 89 | 81 | 0.0 | 0.0 | 0.00 | 0.00 | 0.00 | 16 | 1008.3 |
| 20260503021140 | 89 | 81 | 0.0 | 0.0 | 0.00 | 0.00 | 0.00 | 16 | 1008.4 |
| 20260503021042 | 89 | 81 | 0.0 | 0.0 | 0.00 | 0.00 | 0.00 | 16 | 1008.4 |
| 20260503020920 | 89 | 81 | 0.0 | 0.0 | 0.00 | 0.00 | 0.00 | 16 | 1008.4 |
| 20260503020830 | 89 | 81 | 0.0 | 0.0 | 0.00 | 0.00 | 0.00 | 17 | 1008.4 |
| 20260503020733 | 89 | 81 | 0.0 | 0.0 | 0.00 | 0.00 | 0.00 | 16 | 1008.6 |
| 20260503020618 | 89 | 81 | 0.0 | 0.0 | 0.00 | 0.00 | 0.00 | 16 | 1008.6 |
| 20260503020547 | 89 | 81 | 0.0 | 0.0 | 0.00 | 0.00 | 0.00 | 16 | 1008.5 |
| 20260503020428 | 89 | 81 | 0.0 | 0.0 | 0.00 | 0.00 | 0.00 | 17 | 1008.6 |
| 20260503020337 | 89 | 81 | 0.0 | 0.0 | 0.00 | 0.00 | 0.00 | 15 | 1008.6 |
| 20260503020220 | 89 | 81 | 0.0 | 0.0 | 0.00 | 0.00 | 0.00 | 15 | 1008.4 |
| 20260503020120 | 89 | 81 | 0.0 | 0.0 | 0.00 | 0.00 | 0.00 | 16 | 1008.4 |
| 20260503020040 | 89 | 81 | 0.0 | 0.0 | 0.00 | 0.00 | 0.00 | 16 | 1008.4 |
| 20260503015941 | 89 | 81 | 0.0 | 0.0 | 0.00 | 0.00 | 0.00 | 16 | 1008.4 |
| 20260503015822 | 89 | 81 | 0.0 | 0.0 | 0.00 | 0.00 | 0.00 | 16 | 1008.6 |
| 20260503015725 | 89 | 81 | 0.0 | 0.0 | 0.00 | 0.00 | 0.00 | 16 | 1008.6 |
| 20260503015627 | 89 | 81 | 0.0 | 0.0 | 0.00 | 0.00 | 0.00 | 16 | 1008.6 |
| 20260503015556 | 89 | 81 | 0.0 | 0.0 | 0.00 | 0.00 | 0.00 | 17 | 1008.6 |
| 20260503015418 | 89 | 81 | 0.0 | 0.0 | 0.00 | 0.00 | 0.00 | 17 | 1008.6 |
| 20260503015323 | 89 | 81 | 0.0 | 0.0 | 0.00 | 0.00 | 0.00 | 18 | 1008.6 |
| 20260503015233 | 89 | 81 | 0.0 | 0.0 | 0.00 | 0.00 | 0.00 | 18 | 1008.5 |
| 20260503015134 | 89 | 81 | 0.0 | 0.0 | 0.00 | 0.00 | 0.00 | 16 | 1008.6 |
| 20260503015017 | 89 | 81 | 0.0 | 0.0 | 0.00 | 0.00 | 0.00 | 18 | 1008.6 |
| 20260503014919 | 90 | 81 | 0.0 | 0.0 | 0.00 | 0.00 | 0.00 | 17 | 1008.5 |
| 20260503014828 | 90 | 81 | 0.0 | 0.0 | 0.00 | 0.00 | 0.00 | 18 | 1008.5 |
| 20260503014728 | 90 | 81 | 0.0 | 0.0 | 0.00 | 0.00 | 0.00 | 17 | 1008.5 |
| 20260503014640 | 90 | 81 | 0.0 | 0.0 | 0.00 | 0.00 | 0.00 | 17 | 1008.5 |
| 20260503014521 | 90 | 81 | 0.0 | 0.0 | 0.00 | 0.00 | 0.00 | 18 | 1008.6 |
| 20260503014451 | 90 | 81 | 0.0 | 0.0 | 0.00 | 0.00 | 0.00 | 17 | 1008.6 |
| 20260503014359 | 90 | 81 | 0.0 | 0.0 | 0.00 | 0.00 | 0.00 | 17 | 1008.6 |
| 20260503014220 | 90 | 81 | 0.0 | 0.0 | 0.00 | 0.00 | 0.00 | 16 | 1008.7 |
| 20260503014122 | 90 | 81 | 0.0 | 0.0 | 0.00 | 0.00 | 0.00 | 16 | 1008.7 |
| 20260503014024 | 90 | 81 | 0.0 | 0.0 | 0.00 | 0.00 | 0.00 | 16 | 1008.7 |
| 20260503013937 | 90 | 81 | 0.0 | 0.0 | 0.00 | 0.00 | 0.00 | 16 | 1008.7 |
| 20260503013819 | 91 | 81 | 0.0 | 0.0 | 0.00 | 0.00 | 0.00 | 16 | 1008.7 |
| 20260503013741 | 91 | 80 | 0.0 | 0.0 | 0.00 | 0.00 | 0.00 | 15 | 1008.7 |
| 20260503013629 | 91 | 60 | 0.0 | 0.0 | 0.00 | 0.00 | 0.00 | 15 | 1008.6 |
| 20260503013531 | 91 | 60 | 0.0 | 0.0 | 0.00 | 0.00 | 0.00 | 16 | 1008.6 |
| 20260503013441 | 91 | 60 | 0.0 | 0.0 | 0.00 | 0.00 | 0.00 | 15 | 1008.6 |
| 20260503013347 | 91 | 58 | 0.0 | 0.0 | 0.00 | 0.00 | 0.00 | 16 | 1008.6 |
| 20260503013226 | 91 | 58 | 0.0 | 0.0 | 0.00 | 0.00 | 0.00 | 15 | 1008.6 |
| 20260503013136 | 91 | 58 | 0.0 | 0.0 | 0.00 | 0.00 | 0.00 | 16 | 1008.5 |
| 20260503013035 | 91 | 58 | 0.0 | 0.0 | 0.00 | 0.00 | 0.00 | 15 | 1008.4 |
| 20260503012917 | 91 | 58 | 0.0 | 0.0 | 0.00 | 0.00 | 0.00 | 15 | 1008.5 |
| 20260503012819 | 91 | 57 | 0.0 | 0.0 | 0.00 | 0.00 | 0.00 | 16 | 1008.5 |
| 20260503012733 | 91 | 56 | 0.0 | 0.0 | 0.00 | 0.00 | 0.00 | 16 | 1008.4 |
| 20260503012635 | 91 | 56 | 0.0 | 0.0 | 0.00 | 0.00 | 0.00 | 15 | 1008.4 |
| 20260503012544 | 91 | 56 | 0.0 | 0.0 | 0.00 | 0.00 | 0.00 | 15 | 1008.4 |
| 20260503012423 | 91 | 56 | 0.0 | 0.0 | 0.00 | 0.00 | 0.00 | 16 | 1008.5 |
| 20260503012325 | 91 | 56 | 0.0 | 0.0 | 0.00 | 0.00 | 0.00 | 15 | 1008.6 |
| 20260503012226 | 91 | 56 | 0.0 | 0.0 | 0.00 | 0.00 | 0.00 | 15 | 1008.5 |
| 20260503012120 | 91 | 56 | 0.0 | 0.0 | 0.00 | 0.00 | 0.00 | 15 | 1008.6 |
| 20260503012019 | 91 | 56 | 0.0 | 0.0 | 0.00 | 0.00 | 0.00 | 15 | 1008.6 |
| 20260503011928 | 91 | 56 | 0.0 | 0.0 | 0.00 | 0.00 | 0.00 | 16 | 1008.6 |
| 20260503011830 | 90 | 56 | 0.0 | 0.0 | 0.00 | 0.00 | 0.00 | 17 | 1008.6 |
| 20260503011759 | 91 | 56 | 0.0 | 0.0 | 0.00 | 0.00 | 0.00 | 18 | 1008.6 |
| 20260503011621 | 91 | 56 | 0.0 | 0.0 | 0.00 | 0.00 | 0.00 | 18 | 1008.6 |
| 20260503011524 | 91 | 56 | 0.0 | 0.0 | 0.00 | 0.00 | 0.00 | 18 | 1008.6 |
| 20260503011453 | 91 | 56 | 0.0 | 0.0 | 0.00 | 0.00 | 0.00 | 20 | 1008.7 |
| 20260503011317 | 91 | 58 | 0.0 | 0.0 | 0.00 | 0.00 | 0.00 | 18 | 1008.6 |
| 20260503011219 | 91 | 57 | 0.0 | 0.0 | 0.00 | 0.00 | 0.00 | 17 | 1008.6 |
| 20260503011148 | 91 | 89 | 0.0 | 0.0 | 0.00 | 0.00 | 0.00 | 17 | 1008.7 |
| 20260503011030 | 92 | 89 | 0.0 | 0.0 | 0.00 | 0.00 | 0.00 | 17 | 1008.6 |
| 20260503010932 | 92 | 89 | 0.0 | 0.0 | 0.00 | 0.00 | 0.00 | 17 | 1008.6 |
| 20260503010840 | 92 | 89 | 0.0 | 0.0 | 0.00 | 0.00 | 0.00 | 17 | 1008.7 |
| 20260503010726 | 92 | 91 | 0.0 | 0.0 | 0.00 | 0.00 | 0.00 | 17 | 1008.6 |
| 20260503010629 | 92 | 91 | 0.0 | 0.0 | 0.00 | 0.00 | 0.00 | 16 | 1008.6 |
| 20260503010538 | 92 | 91 | 0.0 | 0.0 | 0.00 | 0.00 | 0.00 | 18 | 1008.7 |
| 20260503010420 | 92 | 91 | 0.0 | 0.0 | 0.00 | 0.00 | 0.00 | 19 | 1008.6 |
| 20260503010321 | 92 | 91 | 0.0 | 0.0 | 0.00 | 0.00 | 0.00 | 19 | 1008.6 |
| 20260503010223 | 92 | 103 | 0.0 | 0.0 | 0.00 | 0.00 | 0.00 | 18 | 1008.6 |
| 20260503010156 | 92 | 104 | 0.0 | 0.0 | 0.00 | 0.00 | 0.00 | 15 | 1008.7 |
| 20260503010035 | 92 | 104 | 0.0 | 0.0 | 0.00 | 0.00 | 0.00 | 16 | 1008.7 |
| 20260503005925 | 92 | 104 | 0.0 | 0.0 | 0.00 | 0.00 | 0.00 | 15 | 1008.7 |
| 20260503005828 | 92 | 105 | 0.0 | 0.0 | 0.00 | 0.00 | 0.00 | 15 | 1008.7 |
| 20260503005738 | 92 | 106 | 0.0 | 0.0 | 0.00 | 0.00 | 0.00 | 14 | 1008.6 |
| 20260503005620 | 92 | 105 | 0.0 | 0.0 | 0.00 | 0.00 | 0.00 | 16 | 1008.7 |
| 20260503005542 | 92 | 105 | 0.0 | 0.0 | 0.00 | 0.00 | 0.00 | 15 | 1008.8 |